Time,TemperatureF,DewpointF,PressureIn,WindDirection,WindDirectionDegrees,WindSpeedMPH,WindSpeedGustMPH,Humidity,HourlyPrecipIn,Conditions,Clouds,dailyrainin,SoftwareType,DateUTC
2013-01-21 00:01:00,23.9,12.0,29.84,WNW,300,7.0,17.0,60,0.00,,,0.01,Wunderground v.1.15,2013-01-21 05:01:00,
2013-01-21 00:03:00,23.9,12.0,29.84,NNW,342,7.0,17.0,60,0.00,,,0.01,Wunderground v.1.15,2013-01-21 05:03:00,
2013-01-21 00:04:00,23.9,12.0,29.84,WNW,303,7.0,17.0,60,0.00,,,0.01,Wunderground v.1.15,2013-01-21 05:04:00,
2013-01-21 00:06:00,23.9,11.6,29.84,West,260,8.0,17.0,59,0.00,,,0.01,Wunderground v.1.15,2013-01-21 05:06:00,
2013-01-21 00:07:00,23.9,11.6,29.84,NW,304,8.0,17.0,59,0.00,,,0.01,Wunderground v.1.15,2013-01-21 05:07:00,
2013-01-21 00:08:00,23.9,11.6,29.84,West,265,8.0,17.0,59,0.00,,,0.01,Wunderground v.1.15,2013-01-21 05:08:00,
2013-01-21 00:12:00,23.9,11.6,29.84,NW,322,6.0,17.0,59,0.00,,,0.01,Wunderground v.1.15,2013-01-21 05:12:00,
2013-01-21 00:15:00,23.9,11.6,29.84,NW,320,4.0,17.0,59,0.00,,,0.01,Wunderground v.1.15,2013-01-21 05:15:00,
2013-01-21 00:16:00,23.9,11.6,29.84,NNW,348,3.0,17.0,59,0.00,,,0.01,Wunderground v.1.15,2013-01-21 05:16:00,
2013-01-21 00:17:00,23.9,11.6,29.84,NW,324,3.0,17.0,59,0.00,,,0.01,Wunderground v.1.15,2013-01-21 05:17:00,
2013-01-21 00:20:00,23.9,12.4,29.84,NNW,331,4.0,17.0,61,0.00,,,0.01,Wunderground v.1.15,2013-01-21 05:20:00,
2013-01-21 00:21:00,23.9,12.8,29.84,NNW,331,4.0,17.0,62,0.00,,,0.01,Wunderground v.1.15,2013-01-21 05:21:00,
2013-01-21 00:23:00,23.7,13.3,29.84,WNW,296,5.0,17.0,64,0.00,,,0.01,Wunderground v.1.15,2013-01-21 05:23:00,
2013-01-21 00:25:00,23.6,13.2,29.84,NNW,338,6.0,17.0,64,0.00,,,0.01,Wunderground v.1.15,2013-01-21 05:25:00,
2013-01-21 00:26:00,23.5,13.1,29.84,WNW,290,6.0,17.0,64,0.00,,,0.01,Wunderground v.1.15,2013-01-21 05:26:00,
2013-01-21 00:28:00,23.4,13.0,29.84,WNW,301,6.0,17.0,64,0.00,,,0.01,Wunderground v.1.15,2013-01-21 05:28:00,
2013-01-21 00:29:00,23.4,13.0,29.84,NW,321,6.0,17.0,64,0.00,,,0.01,Wunderground v.1.15,2013-01-21 05:29:00,
2013-01-21 00:30:00,23.4,13.0,29.84,West,269,6.0,17.0,64,0.00,,,0.01,Wunderground v.1.15,2013-01-21 05:30:00,
2013-01-21 00:33:00,23.3,12.9,29.85,NW,309,6.0,17.0,64,0.00,,,0.01,Wunderground v.1.15,2013-01-21 05:33:00,
2013-01-21 00:34:00,23.3,12.9,29.85,NNW,333,5.0,17.0,64,0.00,,,0.01,Wunderground v.1.15,2013-01-21 05:34:00,
2013-01-21 00:38:00,23.3,12.9,29.85,North,355,5.0,17.0,64,0.00,,,0.01,Wunderground v.1.15,2013-01-21 05:38:00,
2013-01-21 00:40:00,23.2,12.5,29.84,NNW,343,5.0,5.0,63,0.00,,,0.01,Wunderground v.1.15,2013-01-21 05:40:00,
2013-01-21 00:42:00,23.1,11.6,29.84,WNW,290,5.0,11.0,61,0.00,,,0.01,Wunderground v.1.15,2013-01-21 05:42:00,
2013-01-21 00:43:00,23.1,11.3,29.84,NNW,346,5.0,17.0,60,0.00,,,0.01,Wunderground v.1.15,2013-01-21 05:43:00,
2013-01-21 00:45:00,23.0,10.8,29.84,NW,320,6.0,17.0,59,0.00,,,0.01,Wunderground v.1.15,2013-01-21 05:45:00,
2013-01-21 00:47:00,23.0,10.4,29.84,North,360,6.0,17.0,58,0.00,,,0.01,Wunderground v.1.15,2013-01-21 05:47:00,
2013-01-21 00:48:00,23.0,10.4,29.84,North,350,6.0,17.0,58,0.00,,,0.01,Wunderground v.1.15,2013-01-21 05:48:00,
2013-01-21 00:51:00,22.9,9.9,29.85,NW,317,7.0,17.0,57,0.00,,,0.01,Wunderground v.1.15,2013-01-21 05:51:00,
2013-01-21 00:52:00,22.9,9.9,29.85,NW,326,8.0,17.0,57,0.00,,,0.01,Wunderground v.1.15,2013-01-21 05:52:00,
2013-01-21 00:56:00,22.9,9.1,29.85,NW,325,9.0,17.0,55,0.00,,,0.01,Wunderground v.1.15,2013-01-21 05:56:00,
2013-01-21 00:57:00,22.8,9.0,29.85,NW,305,9.0,17.0,55,0.00,,,0.01,Wunderground v.1.15,2013-01-21 05:57:00,
2013-01-21 00:58:00,22.8,9.0,29.85,NW,321,10.0,17.0,55,0.00,,,0.01,Wunderground v.1.15,2013-01-21 05:58:00,
2013-01-21 01:02:00,22.7,8.5,29.85,West,277,10.0,14.0,54,0.00,,,0.01,Wunderground v.1.15,2013-01-21 06:02:00,
2013-01-21 01:05:00,22.7,8.1,29.85,NW,317,10.0,14.0,53,0.00,,,0.01,Wunderground v.1.15,2013-01-21 06:05:00,
2013-01-21 01:08:00,22.6,8.0,29.85,WNW,297,9.0,14.0,53,0.00,,,0.01,Wunderground v.1.15,2013-01-21 06:08:00,
2013-01-21 01:10:00,22.6,7.6,29.86,West,263,9.0,9.0,52,0.00,,,0.01,Wunderground v.1.15,2013-01-21 06:10:00,
2013-01-21 01:11:00,22.6,7.6,29.86,WSW,246,9.0,17.0,52,0.00,,,0.01,Wunderground v.1.15,2013-01-21 06:11:00,
2013-01-21 01:16:00,22.5,7.5,29.86,NNW,329,9.0,17.0,52,0.00,,,0.01,Wunderground v.1.15,2013-01-21 06:16:00,
2013-01-21 01:18:00,22.5,7.5,29.86,NW,325,9.0,17.0,52,0.00,,,0.01,Wunderground v.1.15,2013-01-21 06:18:00,
2013-01-21 01:19:00,22.5,7.5,29.86,NNW,336,8.0,17.0,52,0.00,,,0.01,Wunderground v.1.15,2013-01-21 06:19:00,
2013-01-21 01:21:00,22.4,7.8,29.86,West,269,7.0,14.0,53,0.00,,,0.01,Wunderground v.1.15,2013-01-21 06:21:00,
2013-01-21 01:24:00,22.3,7.3,29.86,West,269,6.0,14.0,52,0.00,,,0.01,Wunderground v.1.15,2013-01-21 06:24:00,
2013-01-21 01:25:00,22.3,6.9,29.86,NW,312,6.0,14.0,51,0.00,,,0.01,Wunderground v.1.15,2013-01-21 06:25:00,
2013-01-21 01:27:00,22.2,6.8,29.86,NW,310,6.0,14.0,51,0.00,,,0.01,Wunderground v.1.15,2013-01-21 06:27:00,
2013-01-21 01:28:00,22.2,6.8,29.86,NNW,338,6.0,14.0,51,0.00,,,0.01,Wunderground v.1.15,2013-01-21 06:28:00,
2013-01-21 01:30:00,22.1,6.7,29.87,NW,307,7.0,7.0,51,0.00,,,0.01,Wunderground v.1.15,2013-01-21 06:30:00,
2013-01-21 01:33:00,22.1,6.7,29.87,West,269,7.0,14.0,51,0.00,,,0.00,Wunderground v.1.15,2013-01-21 06:33:00,
2013-01-21 01:34:00,22.0,6.6,29.87,WNW,292,7.0,14.0,51,0.00,,,0.00,Wunderground v.1.15,2013-01-21 06:34:00,
2013-01-21 01:37:00,22.0,6.6,29.87,WNW,295,7.0,14.0,51,0.00,,,0.00,Wunderground v.1.15,2013-01-21 06:37:00,
2013-01-21 01:39:00,22.0,6.6,29.87,NNW,329,7.0,14.0,51,0.00,,,0.00,Wunderground v.1.15,2013-01-21 06:39:00,
2013-01-21 01:40:00,21.9,6.5,29.87,North,355,7.0,14.0,51,0.00,,,0.00,Wunderground v.1.15,2013-01-21 06:40:00,
2013-01-21 01:41:00,21.9,6.5,29.87,NW,304,7.0,14.0,51,0.00,,,0.00,Wunderground v.1.15,2013-01-21 06:41:00,
2013-01-21 01:44:00,21.8,6.4,29.87,NW,317,6.0,14.0,51,0.00,,,0.00,Wunderground v.1.15,2013-01-21 06:44:00,
2013-01-21 01:48:00,21.8,6.4,29.88,WNW,297,5.0,14.0,51,0.00,,,0.00,Wunderground v.1.15,2013-01-21 06:48:00,
2013-01-21 01:49:00,21.8,6.4,29.88,WNW,297,5.0,14.0,51,0.00,,,0.00,Wunderground v.1.15,2013-01-21 06:49:00,
2013-01-21 01:51:00,21.7,6.3,29.88,SW,215,5.0,14.0,51,0.00,,,0.00,Wunderground v.1.15,2013-01-21 06:51:00,
2013-01-21 01:54:00,21.6,6.2,29.88,NNW,338,5.0,14.0,51,0.00,,,0.00,Wunderground v.1.15,2013-01-21 06:54:00,
2013-01-21 01:56:00,21.6,6.2,29.88,NE,36,6.0,14.0,51,0.00,,,0.00,Wunderground v.1.15,2013-01-21 06:56:00,
2013-01-21 01:58:00,21.6,6.2,29.88,NNW,331,5.0,14.0,51,0.00,,,0.00,Wunderground v.1.15,2013-01-21 06:58:00,
2013-01-21 01:59:00,21.5,6.1,29.88,NW,310,5.0,14.0,51,0.00,,,0.00,Wunderground v.1.15,2013-01-21 06:59:00,
2013-01-21 02:01:00,21.5,6.1,29.88,West,279,5.0,8.0,51,0.00,,,0.00,Wunderground v.1.15,2013-01-21 07:01:00,
2013-01-21 02:05:00,21.5,6.1,29.88,West,279,5.0,15.0,51,0.00,,,0.00,Wunderground v.1.15,2013-01-21 07:05:00,
2013-01-21 02:06:00,21.5,6.1,29.88,WNW,289,5.0,15.0,51,0.00,,,0.00,Wunderground v.1.15,2013-01-21 07:06:00,
2013-01-21 02:10:00,21.4,6.0,29.89,NW,306,4.0,4.0,51,0.00,,,0.00,Wunderground v.1.15,2013-01-21 07:10:00,
2013-01-21 02:12:00,21.3,6.0,29.89,NNW,340,4.0,15.0,51,0.00,,,0.00,Wunderground v.1.15,2013-01-21 07:12:00,
2013-01-21 02:13:00,21.3,6.0,29.89,North,355,4.0,15.0,51,0.00,,,0.00,Wunderground v.1.15,2013-01-21 07:13:00,
2013-01-21 02:14:00,21.3,6.0,29.89,NW,311,4.0,15.0,51,0.00,,,0.00,Wunderground v.1.15,2013-01-21 07:14:00,
2013-01-21 02:15:00,21.3,6.0,29.89,West,279,4.0,15.0,51,0.00,,,0.00,Wunderground v.1.15,2013-01-21 07:15:00,
2013-01-21 02:20:00,21.2,5.9,29.89,West,276,3.0,15.0,51,0.00,,,0.00,Wunderground v.1.15,2013-01-21 07:20:00,
2013-01-21 02:21:00,21.2,5.9,29.89,West,276,3.0,15.0,51,0.00,,,0.00,Wunderground v.1.15,2013-01-21 07:21:00,
2013-01-21 02:26:00,21.2,5.9,29.89,North,355,2.0,15.0,51,0.00,,,0.00,Wunderground v.1.15,2013-01-21 07:26:00,
2013-01-21 02:27:00,21.2,5.9,29.89,North,350,2.0,15.0,51,0.00,,,0.00,Wunderground v.1.15,2013-01-21 07:27:00,
2013-01-21 02:29:00,21.1,5.8,29.89,North,350,2.0,15.0,51,0.00,,,0.00,Wunderground v.1.15,2013-01-21 07:29:00,
2013-01-21 02:30:00,21.1,6.2,29.89,North,350,2.0,2.0,52,0.00,,,0.00,Wunderground v.1.15,2013-01-21 07:30:00,
2013-01-21 02:35:00,21.0,6.1,29.89,North,355,1.0,15.0,52,0.00,,,0.00,Wunderground v.1.15,2013-01-21 07:35:00,
2013-01-21 02:36:00,21.0,6.1,29.89,NNW,348,1.0,15.0,52,0.00,,,0.00,Wunderground v.1.15,2013-01-21 07:36:00,
2013-01-21 02:39:00,21.0,6.1,29.89,NNW,331,1.0,15.0,52,0.00,,,0.00,Wunderground v.1.15,2013-01-21 07:39:00,
2013-01-21 02:45:00,20.9,6.4,29.89,NNW,338,2.0,15.0,53,0.00,,,0.00,Wunderground v.1.15,2013-01-21 07:45:00,
2013-01-21 02:46:00,20.9,6.4,29.89,NNW,338,2.0,15.0,53,0.00,,,0.00,Wunderground v.1.15,2013-01-21 07:46:00,
2013-01-21 02:47:00,20.9,6.4,29.89,NNW,338,1.0,15.0,53,0.00,,,0.00,Wunderground v.1.15,2013-01-21 07:47:00,
2013-01-21 02:49:00,20.9,6.4,29.89,NNW,338,1.0,15.0,53,0.00,,,0.00,Wunderground v.1.15,2013-01-21 07:49:00,
2013-01-21 02:50:00,20.9,6.4,29.89,NNW,338,1.0,15.0,53,0.00,,,0.00,Wunderground v.1.15,2013-01-21 07:50:00,
2013-01-21 02:52:00,20.8,6.3,29.89,NNW,338,1.0,15.0,53,0.00,,,0.00,Wunderground v.1.15,2013-01-21 07:52:00,
2013-01-21 02:56:00,20.8,6.3,29.89,NNW,328,2.0,15.0,53,0.00,,,0.00,Wunderground v.1.15,2013-01-21 07:56:00,
2013-01-21 02:57:00,20.8,6.3,29.89,NNW,328,2.0,15.0,53,0.00,,,0.00,Wunderground v.1.15,2013-01-21 07:57:00,
2013-01-21 02:58:00,20.8,6.3,29.89,West,280,2.0,15.0,53,0.00,,,0.00,Wunderground v.1.15,2013-01-21 07:58:00,
2013-01-21 03:02:00,20.8,6.3,29.89,NNW,340,3.0,6.0,53,0.00,,,0.00,Wunderground v.1.15,2013-01-21 08:02:00,
2013-01-21 03:03:00,20.8,6.3,29.89,NNW,332,3.0,6.0,53,0.00,,,0.00,Wunderground v.1.15,2013-01-21 08:03:00,
2013-01-21 03:06:00,20.8,6.3,29.89,WNW,298,3.0,6.0,53,0.00,,,0.00,Wunderground v.1.15,2013-01-21 08:06:00,
2013-01-21 03:07:00,20.7,6.2,29.89,NW,309,3.0,6.0,53,0.00,,,0.00,Wunderground v.1.15,2013-01-21 08:07:00,
2013-01-21 03:08:00,20.7,6.2,29.89,WSW,251,3.0,7.0,53,0.00,,,0.00,Wunderground v.1.15,2013-01-21 08:08:00,
2013-01-21 03:13:00,20.6,6.2,29.89,West,263,4.0,6.0,53,0.00,,,0.00,Wunderground v.1.15,2013-01-21 08:13:00,
2013-01-21 03:14:00,20.6,6.2,29.89,WNW,283,4.0,9.0,53,0.00,,,0.00,Wunderground v.1.15,2013-01-21 08:14:00,
2013-01-21 03:15:00,20.6,6.2,29.89,WNW,293,4.0,9.0,53,0.00,,,0.00,Wunderground v.1.15,2013-01-21 08:15:00,
2013-01-21 03:16:00,20.6,6.2,29.89,West,271,4.0,9.0,53,0.00,,,0.00,Wunderground v.1.15,2013-01-21 08:16:00,
2013-01-21 03:20:00,20.5,6.1,29.89,NW,317,3.0,6.0,53,0.00,,,0.00,Wunderground v.1.15,2013-01-21 08:20:00,
2013-01-21 03:22:00,20.4,6.0,29.89,NW,316,3.0,6.0,53,0.00,,,0.00,Wunderground v.1.15,2013-01-21 08:22:00,
2013-01-21 03:24:00,20.4,6.0,29.89,NNW,333,3.0,6.0,53,0.00,,,0.00,Wunderground v.1.15,2013-01-21 08:24:00,
2013-01-21 03:27:00,20.4,6.4,29.89,NNW,337,2.0,6.0,54,0.00,,,0.00,Wunderground v.1.15,2013-01-21 08:27:00,
2013-01-21 03:28:00,20.4,6.4,29.89,NNW,337,1.0,6.0,54,0.00,,,0.00,Wunderground v.1.15,2013-01-21 08:28:00,
2013-01-21 03:33:00,20.3,6.3,29.89,NNW,337,1.0,6.0,54,0.00,,,0.00,Wunderground v.1.15,2013-01-21 08:33:00,
2013-01-21 03:34:00,20.2,6.2,29.89,NNW,337,1.0,6.0,54,0.00,,,0.00,Wunderground v.1.15,2013-01-21 08:34:00,
2013-01-21 03:36:00,20.2,6.2,29.89,NNW,337,0.0,6.0,54,0.00,,,0.00,Wunderground v.1.15,2013-01-21 08:36:00,
2013-01-21 03:41:00,20.0,6.0,29.89,NNW,337,0.0,6.0,54,0.00,,,0.00,Wunderground v.1.15,2013-01-21 08:41:00,
2013-01-21 03:42:00,20.0,6.0,29.89,NNW,337,0.0,6.0,54,0.00,,,0.00,Wunderground v.1.15,2013-01-21 08:42:00,
2013-01-21 03:44:00,19.9,6.3,29.89,NNW,337,0.0,6.0,55,0.00,,,0.00,Wunderground v.1.15,2013-01-21 08:44:00,
2013-01-21 03:47:00,19.9,6.3,29.89,NNW,333,0.0,6.0,55,0.00,,,0.00,Wunderground v.1.15,2013-01-21 08:47:00,
2013-01-21 03:48:00,19.8,6.2,29.89,NNW,333,0.0,6.0,55,0.00,,,0.00,Wunderground v.1.15,2013-01-21 08:48:00,
2013-01-21 03:52:00,19.8,6.2,29.89,NNW,333,0.0,6.0,55,0.00,,,0.00,Wunderground v.1.15,2013-01-21 08:52:00,
2013-01-21 03:53:00,19.8,5.8,29.89,NNW,333,0.0,6.0,54,0.00,,,0.00,Wunderground v.1.15,2013-01-21 08:53:00,
2013-01-21 03:55:00,19.8,6.2,29.89,NNW,333,0.0,6.0,55,0.00,,,0.00,Wunderground v.1.15,2013-01-21 08:55:00,
2013-01-21 03:58:00,19.6,6.0,29.89,NNW,333,0.0,6.0,55,0.00,,,0.00,Wunderground v.1.15,2013-01-21 08:58:00,
2013-01-21 04:01:00,19.5,5.9,29.89,NNW,333,0.0,4.0,55,0.00,,,0.00,Wunderground v.1.15,2013-01-21 09:01:00,
2013-01-21 04:02:00,19.5,5.9,29.89,NNW,333,0.0,4.0,55,0.00,,,0.00,Wunderground v.1.15,2013-01-21 09:02:00,
2013-01-21 04:03:00,19.5,5.9,29.89,NNW,333,0.0,4.0,55,0.00,,,0.00,Wunderground v.1.15,2013-01-21 09:03:00,
2013-01-21 04:07:00,19.4,5.8,29.89,NNW,333,0.0,4.0,55,0.00,,,0.00,Wunderground v.1.15,2013-01-21 09:07:00,
2013-01-21 04:08:00,19.4,5.8,29.89,NNW,333,0.0,4.0,55,0.00,,,0.00,Wunderground v.1.15,2013-01-21 09:08:00,
2013-01-21 04:09:00,19.4,5.8,29.88,NNW,333,0.0,4.0,55,0.00,,,0.00,Wunderground v.1.15,2013-01-21 09:09:00,
2013-01-21 04:10:00,19.4,5.8,29.88,NNW,333,0.0,4.0,55,0.00,,,0.00,Wunderground v.1.15,2013-01-21 09:10:00,
2013-01-21 04:13:00,19.4,6.2,29.88,NNW,333,0.0,4.0,56,0.00,,,0.00,Wunderground v.1.15,2013-01-21 09:13:00,
2013-01-21 04:15:00,19.4,5.8,29.88,NNW,333,0.0,4.0,55,0.00,,,0.00,Wunderground v.1.15,2013-01-21 09:15:00,
2013-01-21 04:20:00,19.2,5.7,29.88,NNW,333,0.0,4.0,55,0.00,,,0.00,Wunderground v.1.15,2013-01-21 09:20:00,
2013-01-21 04:21:00,19.2,6.1,29.88,NNW,333,0.0,4.0,56,0.00,,,0.00,Wunderground v.1.15,2013-01-21 09:21:00,
2013-01-21 04:23:00,19.3,6.1,29.88,NNW,333,0.0,4.0,56,0.00,,,0.00,Wunderground v.1.15,2013-01-21 09:23:00,
2013-01-21 04:27:00,19.1,6.0,29.89,NNW,333,0.0,4.0,56,0.00,,,0.00,Wunderground v.1.15,2013-01-21 09:27:00,
2013-01-21 04:29:00,19.0,5.9,29.89,NNW,333,0.0,4.0,56,0.00,,,0.00,Wunderground v.1.15,2013-01-21 09:29:00,
2013-01-21 04:30:00,19.0,5.9,29.89,NNW,333,0.0,4.0,56,0.00,,,0.00,Wunderground v.1.15,2013-01-21 09:30:00,
2013-01-21 04:32:00,19.0,6.3,29.89,NNW,333,0.0,4.0,57,0.00,,,0.00,Wunderground v.1.15,2013-01-21 09:32:00,
2013-01-21 04:33:00,19.0,6.3,29.89,NNW,333,0.0,4.0,57,0.00,,,0.00,Wunderground v.1.15,2013-01-21 09:33:00,
2013-01-21 04:36:00,18.9,6.2,29.89,NNW,333,0.0,4.0,57,0.00,,,0.00,Wunderground v.1.15,2013-01-21 09:36:00,
2013-01-21 04:38:00,18.9,6.2,29.89,NNW,333,0.0,4.0,57,0.00,,,0.00,Wunderground v.1.15,2013-01-21 09:38:00,
2013-01-21 04:39:00,18.8,6.1,29.89,NNW,333,0.0,4.0,57,0.00,,,0.00,Wunderground v.1.15,2013-01-21 09:39:00,
2013-01-21 04:41:00,18.7,6.0,29.89,NNW,333,0.0,4.0,57,0.00,,,0.00,Wunderground v.1.15,2013-01-21 09:41:00,
2013-01-21 04:45:00,18.5,6.2,29.89,NNW,333,0.0,4.0,58,0.00,,,0.00,Wunderground v.1.15,2013-01-21 09:45:00,
2013-01-21 04:46:00,18.4,6.1,29.89,NNW,333,0.0,4.0,58,0.00,,,0.00,Wunderground v.1.15,2013-01-21 09:46:00,
2013-01-21 04:47:00,18.4,6.1,29.89,NNW,333,0.0,4.0,58,0.00,,,0.00,Wunderground v.1.15,2013-01-21 09:47:00,
2013-01-21 04:48:00,18.4,6.1,29.89,NNW,333,0.0,4.0,58,0.00,,,0.00,Wunderground v.1.15,2013-01-21 09:48:00,
2013-01-21 04:52:00,18.4,6.1,29.89,NNW,333,0.0,4.0,58,0.00,,,0.00,Wunderground v.1.15,2013-01-21 09:52:00,
2013-01-21 04:54:00,18.4,6.1,29.89,NNW,333,0.0,4.0,58,0.00,,,0.00,Wunderground v.1.15,2013-01-21 09:54:00,
2013-01-21 04:55:00,18.4,6.1,29.89,NNW,333,0.0,4.0,58,0.00,,,0.00,Wunderground v.1.15,2013-01-21 09:55:00,
2013-01-21 04:58:00,18.6,6.3,29.89,NNW,333,0.0,4.0,58,0.00,,,0.00,Wunderground v.1.15,2013-01-21 09:58:00,
2013-01-21 05:00:00,18.7,6.0,29.89,NNW,333,0.0,0.0,57,0.00,,,0.00,Wunderground v.1.15,2013-01-21 10:00:00,
2013-01-21 05:01:00,18.7,6.0,29.89,NNW,333,0.0,0.0,57,0.00,,,0.00,Wunderground v.1.15,2013-01-21 10:01:00,
2013-01-21 05:03:00,18.6,6.3,29.90,NNW,333,0.0,0.0,58,0.00,,,0.00,Wunderground v.1.15,2013-01-21 10:03:00,
2013-01-21 05:05:00,18.6,5.9,29.90,NNW,333,0.0,0.0,57,0.00,,,0.00,Wunderground v.1.15,2013-01-21 10:05:00,
2013-01-21 05:07:00,18.6,5.9,29.90,NNW,333,0.0,0.0,57,0.00,,,0.00,Wunderground v.1.15,2013-01-21 10:07:00,
2013-01-21 05:08:00,18.8,5.7,29.90,NNW,333,0.0,2.0,56,0.00,,,0.00,Wunderground v.1.15,2013-01-21 10:08:00,
2013-01-21 05:09:00,18.8,5.7,29.90,NNW,333,0.0,3.0,56,0.00,,,0.00,Wunderground v.1.15,2013-01-21 10:09:00,
2013-01-21 05:10:00,18.8,5.7,29.90,NNW,329,1.0,3.0,56,0.00,,,0.00,Wunderground v.1.15,2013-01-21 10:10:00,
2013-01-21 05:15:00,18.9,5.4,29.90,SSW,206,2.0,4.0,55,0.00,,,0.00,Wunderground v.1.15,2013-01-21 10:15:00,
2013-01-21 05:16:00,18.9,5.4,29.91,SW,218,2.0,4.0,55,0.00,,,0.00,Wunderground v.1.15,2013-01-21 10:16:00,
2013-01-21 05:17:00,18.9,5.8,29.91,SW,218,3.0,4.0,56,0.00,,,0.00,Wunderground v.1.15,2013-01-21 10:17:00,
2013-01-21 05:18:00,18.8,5.7,29.91,West,264,3.0,4.0,56,0.00,,,0.00,Wunderground v.1.15,2013-01-21 10:18:00,
2013-01-21 05:22:00,18.6,5.9,29.91,WSW,253,3.0,3.0,57,0.00,,,0.00,Wunderground v.1.15,2013-01-21 10:22:00,
2013-01-21 05:23:00,18.6,5.9,29.91,SW,234,3.0,3.0,57,0.00,,,0.00,Wunderground v.1.15,2013-01-21 10:23:00,
2013-01-21 05:26:00,18.3,6.0,29.91,SW,232,3.0,3.0,58,0.00,,,0.00,Wunderground v.1.15,2013-01-21 10:26:00,
2013-01-21 05:28:00,18.3,6.0,29.91,SW,232,2.0,3.0,58,0.00,,,0.00,Wunderground v.1.15,2013-01-21 10:28:00,
2013-01-21 05:31:00,18.3,5.6,29.91,SW,232,1.0,1.0,57,0.00,,,0.00,Wunderground v.1.15,2013-01-21 10:31:00,
2013-01-21 05:33:00,18.3,5.2,29.91,SW,232,1.0,1.0,56,0.00,,,0.00,Wunderground v.1.15,2013-01-21 10:33:00,
2013-01-21 05:36:00,18.4,5.3,29.91,SW,232,1.0,2.0,56,0.00,,,0.00,Wunderground v.1.15,2013-01-21 10:36:00,
2013-01-21 05:38:00,18.4,5.3,29.91,SW,232,0.0,2.0,56,0.00,,,0.00,Wunderground v.1.15,2013-01-21 10:38:00,
2013-01-21 05:39:00,18.5,5.0,29.91,SW,232,0.0,2.0,55,0.00,,,0.00,Wunderground v.1.15,2013-01-21 10:39:00,
2013-01-21 05:40:00,18.5,5.0,29.91,SW,232,0.0,0.0,55,0.00,,,0.00,Wunderground v.1.15,2013-01-21 10:40:00,
2013-01-21 05:43:00,18.5,5.0,29.91,SW,229,1.0,3.0,55,0.00,,,0.00,Wunderground v.1.15,2013-01-21 10:43:00,
2013-01-21 05:44:00,18.5,5.0,29.91,SW,229,1.0,3.0,55,0.00,,,0.00,Wunderground v.1.15,2013-01-21 10:44:00,
2013-01-21 05:45:00,18.5,5.0,29.91,SW,229,1.0,3.0,55,0.00,,,0.00,Wunderground v.1.15,2013-01-21 10:45:00,
2013-01-21 05:49:00,18.6,4.7,29.92,SW,229,1.0,3.0,54,0.00,,,0.00,Wunderground v.1.15,2013-01-21 10:49:00,
2013-01-21 05:50:00,18.6,4.7,29.92,SW,229,1.0,3.0,54,0.00,,,0.00,Wunderground v.1.15,2013-01-21 10:50:00,
2013-01-21 05:51:00,18.6,4.7,29.92,SW,216,1.0,3.0,54,0.00,,,0.00,Wunderground v.1.15,2013-01-21 10:51:00,
2013-01-21 05:55:00,18.7,5.2,29.92,SW,216,1.0,3.0,55,0.00,,,0.00,Wunderground v.1.15,2013-01-21 10:55:00,
2013-01-21 05:58:00,18.7,5.2,29.92,SW,222,1.0,3.0,55,0.00,,,0.00,Wunderground v.1.15,2013-01-21 10:58:00,
2013-01-21 06:02:00,18.8,5.3,29.92,SW,223,1.0,4.0,55,0.00,,,0.00,Wunderground v.1.15,2013-01-21 11:02:00,
2013-01-21 06:04:00,18.8,5.7,29.92,SW,223,1.0,4.0,56,0.00,,,0.00,Wunderground v.1.15,2013-01-21 11:04:00,
2013-01-21 06:05:00,18.8,5.7,29.92,SW,223,0.0,4.0,56,0.00,,,0.00,Wunderground v.1.15,2013-01-21 11:05:00,
2013-01-21 06:08:00,18.8,5.7,29.92,SW,222,0.0,4.0,56,0.00,,,0.00,Wunderground v.1.15,2013-01-21 11:08:00,
2013-01-21 06:09:00,18.8,5.7,29.92,SSW,206,0.0,4.0,56,0.00,,,0.00,Wunderground v.1.15,2013-01-21 11:09:00,
2013-01-21 06:11:00,18.8,5.7,29.92,SSW,206,0.0,4.0,56,0.00,,,0.00,Wunderground v.1.15,2013-01-21 11:11:00,
2013-01-21 06:13:00,18.8,5.7,29.92,WSW,241,1.0,4.0,56,0.00,,,0.00,Wunderground v.1.15,2013-01-21 11:13:00,
2013-01-21 06:14:00,18.8,5.7,29.92,WSW,240,1.0,4.0,56,0.00,,,0.00,Wunderground v.1.15,2013-01-21 11:14:00,
2013-01-21 06:17:00,18.8,5.7,29.92,WSW,238,1.0,4.0,56,0.00,,,0.00,Wunderground v.1.15,2013-01-21 11:17:00,
2013-01-21 06:19:00,18.9,5.8,29.92,WSW,238,1.0,4.0,56,0.00,,,0.00,Wunderground v.1.15,2013-01-21 11:19:00,
2013-01-21 06:21:00,18.9,5.8,29.92,WSW,238,1.0,4.0,56,0.00,,,0.00,Wunderground v.1.15,2013-01-21 11:21:00,
2013-01-21 06:22:00,18.9,5.8,29.92,WSW,238,1.0,4.0,56,0.00,,,0.00,Wunderground v.1.15,2013-01-21 11:22:00,
2013-01-21 06:25:00,19.0,5.5,29.92,WSW,257,1.0,4.0,55,0.00,,,0.00,Wunderground v.1.15,2013-01-21 11:25:00,
2013-01-21 06:28:00,19.0,5.5,29.92,NW,311,1.0,4.0,55,0.00,,,0.00,Wunderground v.1.15,2013-01-21 11:28:00,
2013-01-21 06:29:00,19.0,5.5,29.92,NW,311,1.0,4.0,55,0.00,,,0.00,Wunderground v.1.15,2013-01-21 11:29:00,
2013-01-21 06:30:00,19.0,5.5,29.92,NW,311,2.0,2.0,55,0.00,,,0.00,Wunderground v.1.15,2013-01-21 11:30:00,
2013-01-21 06:34:00,19.0,5.5,29.92,NW,311,1.0,4.0,55,0.00,,,0.00,Wunderground v.1.15,2013-01-21 11:34:00,
2013-01-21 06:35:00,19.0,5.5,29.92,NW,311,1.0,4.0,55,0.00,,,0.00,Wunderground v.1.15,2013-01-21 11:35:00,
2013-01-21 06:37:00,19.0,5.5,29.92,NW,311,1.0,4.0,55,0.00,,,0.00,Wunderground v.1.15,2013-01-21 11:37:00,
2013-01-21 06:40:00,19.0,5.9,29.92,NW,311,0.0,4.0,56,0.00,,,0.00,Wunderground v.1.15,2013-01-21 11:40:00,
2013-01-21 06:41:00,19.0,5.5,29.92,NW,311,0.0,4.0,55,0.00,,,0.00,Wunderground v.1.15,2013-01-21 11:41:00,
2013-01-21 06:44:00,19.0,5.9,29.92,NW,311,0.0,4.0,56,0.00,,,0.00,Wunderground v.1.15,2013-01-21 11:44:00,
2013-01-21 06:45:00,19.0,5.9,29.92,NW,311,0.0,4.0,56,0.00,,,0.00,Wunderground v.1.15,2013-01-21 11:45:00,
2013-01-21 06:47:00,19.0,5.9,29.92,NW,311,1.0,4.0,56,0.00,,,0.00,Wunderground v.1.15,2013-01-21 11:47:00,
2013-01-21 06:49:00,19.0,5.9,29.92,NW,311,1.0,4.0,56,0.00,,,0.00,Wunderground v.1.15,2013-01-21 11:49:00,
2013-01-21 06:50:00,19.0,5.9,29.92,NW,311,1.0,1.0,56,0.00,,,0.00,Wunderground v.1.15,2013-01-21 11:50:00,
2013-01-21 06:53:00,18.9,5.8,29.92,NW,311,1.0,4.0,56,0.00,,,0.00,Wunderground v.1.15,2013-01-21 11:53:00,
2013-01-21 06:55:00,19.0,5.9,29.92,NW,311,1.0,4.0,56,0.00,,,0.00,Wunderground v.1.15,2013-01-21 11:55:00,
2013-01-21 06:56:00,18.9,5.8,29.92,NW,311,0.0,4.0,56,0.00,,,0.00,Wunderground v.1.15,2013-01-21 11:56:00,
2013-01-21 06:59:00,18.9,5.8,29.92,NW,311,0.0,4.0,56,0.00,,,0.00,Wunderground v.1.15,2013-01-21 11:59:00,
2013-01-21 07:00:00,18.9,5.8,29.92,NW,311,0.0,3.0,56,0.00,,,0.00,Wunderground v.1.15,2013-01-21 12:00:00,
2013-01-21 07:02:00,18.9,5.8,29.92,NW,311,0.0,3.0,56,0.00,,,0.00,Wunderground v.1.15,2013-01-21 12:02:00,
2013-01-21 07:06:00,18.9,5.8,29.92,NW,311,0.0,3.0,56,0.00,,,0.00,Wunderground v.1.15,2013-01-21 12:06:00,
2013-01-21 07:08:00,18.9,5.8,29.92,NW,311,0.0,3.0,56,0.00,,,0.00,Wunderground v.1.15,2013-01-21 12:08:00,
2013-01-21 07:09:00,18.9,5.8,29.92,NW,311,0.0,3.0,56,0.00,,,0.00,Wunderground v.1.15,2013-01-21 12:09:00,
2013-01-21 07:11:00,18.9,5.8,29.92,NW,311,0.0,3.0,56,0.00,,,0.00,Wunderground v.1.15,2013-01-21 12:11:00,
2013-01-21 07:12:00,18.9,5.8,29.92,NW,311,0.0,3.0,56,0.00,,,0.00,Wunderground v.1.15,2013-01-21 12:12:00,
2013-01-21 07:14:00,18.9,6.2,29.92,NW,311,0.0,3.0,57,0.00,,,0.00,Wunderground v.1.15,2013-01-21 12:14:00,
2013-01-21 07:17:00,18.9,6.2,29.92,NW,311,0.0,3.0,57,0.00,,,0.00,Wunderground v.1.15,2013-01-21 12:17:00,
2013-01-21 07:18:00,18.9,6.2,29.92,NW,311,0.0,3.0,57,0.00,,,0.00,Wunderground v.1.15,2013-01-21 12:18:00,
2013-01-21 07:19:00,18.9,6.5,29.92,NW,311,0.0,3.0,58,0.00,,,0.00,Wunderground v.1.15,2013-01-21 12:19:00,
2013-01-21 07:24:00,18.9,6.2,29.92,NW,311,0.0,3.0,57,0.00,,,0.00,Wunderground v.1.15,2013-01-21 12:24:00,
2013-01-21 07:25:00,18.9,6.2,29.92,NW,311,0.0,3.0,57,0.00,,,0.00,Wunderground v.1.15,2013-01-21 12:25:00,
2013-01-21 07:26:00,18.9,6.2,29.92,NW,311,0.0,3.0,57,0.00,,,0.00,Wunderground v.1.15,2013-01-21 12:26:00,
2013-01-21 07:27:00,18.9,6.2,29.92,NW,311,0.0,3.0,57,0.00,,,0.00,Wunderground v.1.15,2013-01-21 12:27:00,
2013-01-21 07:30:00,18.8,6.1,29.92,NW,311,0.0,3.0,57,0.00,,,0.00,Wunderground v.1.15,2013-01-21 12:30:00,
2013-01-21 07:31:00,18.8,6.1,29.92,NW,311,0.0,3.0,57,0.00,,,0.00,Wunderground v.1.15,2013-01-21 12:31:00,
2013-01-21 07:36:00,18.9,6.2,29.92,NW,311,0.0,3.0,57,0.00,,,0.00,Wunderground v.1.15,2013-01-21 12:36:00,
2013-01-21 07:37:00,18.8,6.1,29.92,NW,311,0.0,3.0,57,0.00,,,0.00,Wunderground v.1.15,2013-01-21 12:37:00,
2013-01-21 07:39:00,18.8,6.1,29.92,NW,311,0.0,3.0,57,0.00,,,0.00,Wunderground v.1.15,2013-01-21 12:39:00,
2013-01-21 07:41:00,18.8,6.4,29.93,NW,311,0.0,3.0,58,0.00,,,0.00,Wunderground v.1.15,2013-01-21 12:41:00,
2013-01-21 07:43:00,18.9,7.3,29.92,NW,311,0.0,3.0,60,0.00,,,0.00,Wunderground v.1.15,2013-01-21 12:43:00,
2013-01-21 07:44:00,18.9,6.9,29.93,NW,311,0.0,3.0,59,0.00,,,0.00,Wunderground v.1.15,2013-01-21 12:44:00,
2013-01-21 07:45:00,19.0,6.6,29.92,NW,311,0.0,3.0,58,0.00,,,0.00,Wunderground v.1.15,2013-01-21 12:45:00,
2013-01-21 07:47:00,19.1,7.1,29.92,NW,311,0.0,3.0,59,0.00,,,0.00,Wunderground v.1.15,2013-01-21 12:47:00,
2013-01-21 07:49:00,19.0,6.6,29.92,NW,311,0.0,3.0,58,0.00,,,0.00,Wunderground v.1.15,2013-01-21 12:49:00,
2013-01-21 07:52:00,19.1,6.7,29.92,NW,311,0.0,3.0,58,0.00,,,0.00,Wunderground v.1.15,2013-01-21 12:52:00,
2013-01-21 07:53:00,19.1,6.7,29.92,NW,311,0.0,3.0,58,0.00,,,0.00,Wunderground v.1.15,2013-01-21 12:53:00,
2013-01-21 07:55:00,19.2,6.8,29.92,NW,311,0.0,3.0,58,0.00,,,0.00,Wunderground v.1.15,2013-01-21 12:55:00,
2013-01-21 07:57:00,19.3,6.5,29.92,NW,311,0.0,3.0,57,0.00,,,0.00,Wunderground v.1.15,2013-01-21 12:57:00,
2013-01-21 07:58:00,19.3,6.1,29.92,NW,311,0.0,3.0,56,0.00,,,0.00,Wunderground v.1.15,2013-01-21 12:58:00,
2013-01-21 08:02:00,19.3,6.5,29.92,NW,311,0.0,0.0,57,0.00,,,0.00,Wunderground v.1.15,2013-01-21 13:02:00,
2013-01-21 08:06:00,19.3,6.9,29.92,NW,311,0.0,0.0,58,0.00,,,0.00,Wunderground v.1.15,2013-01-21 13:06:00,
2013-01-21 08:07:00,19.3,6.9,29.92,NW,311,0.0,0.0,58,0.00,,,0.00,Wunderground v.1.15,2013-01-21 13:07:00,
2013-01-21 08:08:00,19.3,6.9,29.92,NW,311,0.0,0.0,58,0.00,,,0.00,Wunderground v.1.15,2013-01-21 13:08:00,
2013-01-21 08:10:00,19.2,7.2,29.92,NW,311,0.0,0.0,59,0.00,,,0.00,Wunderground v.1.15,2013-01-21 13:10:00,
2013-01-21 08:14:00,18.8,7.6,29.92,NW,313,0.0,1.0,61,0.00,,,0.00,Wunderground v.1.15,2013-01-21 13:14:00,
2013-01-21 08:16:00,18.8,7.6,29.92,NW,315,0.0,1.0,61,0.00,,,0.00,Wunderground v.1.15,2013-01-21 13:16:00,
2013-01-21 08:17:00,18.8,7.6,29.92,NW,315,0.0,1.0,61,0.00,,,0.00,Wunderground v.1.15,2013-01-21 13:17:00,
2013-01-21 08:18:00,18.7,7.5,29.92,NW,317,0.0,1.0,61,0.00,,,0.00,Wunderground v.1.15,2013-01-21 13:18:00,
2013-01-21 08:21:00,18.7,7.8,29.92,NW,317,0.0,0.0,62,0.00,,,0.00,Wunderground v.1.15,2013-01-21 13:21:00,
2013-01-21 08:22:00,18.7,7.8,29.92,NW,317,0.0,1.0,62,0.00,,,0.00,Wunderground v.1.15,2013-01-21 13:22:00,
2013-01-21 08:23:00,18.7,7.8,29.92,NW,317,0.0,2.0,62,0.00,,,0.00,Wunderground v.1.15,2013-01-21 13:23:00,
2013-01-21 08:24:00,18.8,7.9,29.93,NW,317,1.0,2.0,62,0.00,,,0.00,Wunderground v.1.15,2013-01-21 13:24:00,
2013-01-21 08:26:00,18.8,7.9,29.93,NW,317,1.0,2.0,62,0.00,,,0.00,Wunderground v.1.15,2013-01-21 13:26:00,
2013-01-21 08:28:00,18.8,7.6,29.93,NW,315,1.0,2.0,61,0.00,,,0.00,Wunderground v.1.15,2013-01-21 13:28:00,
2013-01-21 08:29:00,18.8,7.6,29.93,NW,315,1.0,2.0,61,0.00,,,0.00,Wunderground v.1.15,2013-01-21 13:29:00,
2013-01-21 08:33:00,19.0,7.7,29.93,SSW,195,2.0,3.0,61,0.00,,,0.00,Wunderground v.1.15,2013-01-21 13:33:00,
2013-01-21 08:35:00,19.1,7.8,29.93,SSW,195,1.0,3.0,61,0.00,,,0.00,Wunderground v.1.15,2013-01-21 13:35:00,
2013-01-21 08:36:00,19.2,7.9,29.93,SSW,195,1.0,3.0,61,0.00,,,0.00,Wunderground v.1.15,2013-01-21 13:36:00,
2013-01-21 08:38:00,19.3,7.7,29.93,SSW,195,1.0,3.0,60,0.00,,,0.00,Wunderground v.1.15,2013-01-21 13:38:00,
2013-01-21 08:43:00,19.4,7.0,29.93,WSW,243,0.0,2.0,58,0.00,,,0.00,Wunderground v.1.15,2013-01-21 13:43:00,
2013-01-21 08:44:00,19.4,7.0,29.93,WSW,243,0.0,2.0,58,0.00,,,0.00,Wunderground v.1.15,2013-01-21 13:44:00,
2013-01-21 08:45:00,19.4,6.6,29.93,West,260,0.0,2.0,57,0.00,,,0.00,Wunderground v.1.15,2013-01-21 13:45:00,
2013-01-21 08:46:00,19.5,7.1,29.93,WSW,254,1.0,3.0,58,0.00,,,0.00,Wunderground v.1.15,2013-01-21 13:46:00,
2013-01-21 08:50:00,19.6,6.8,29.93,WSW,248,1.0,1.0,57,0.00,,,0.00,Wunderground v.1.15,2013-01-21 13:50:00,
2013-01-21 08:52:00,19.6,6.8,29.93,WSW,248,1.0,1.0,57,0.00,,,0.00,Wunderground v.1.15,2013-01-21 13:52:00,
2013-01-21 08:56:00,19.8,7.0,29.93,WSW,248,1.0,1.0,57,0.00,,,0.00,Wunderground v.1.15,2013-01-21 13:56:00,
2013-01-21 08:57:00,19.8,7.0,29.93,WSW,248,0.0,1.0,57,0.00,,,0.00,Wunderground v.1.15,2013-01-21 13:57:00,
2013-01-21 08:58:00,19.8,7.0,29.93,WSW,248,0.0,1.0,57,0.00,,,0.00,Wunderground v.1.15,2013-01-21 13:58:00,
2013-01-21 09:01:00,19.9,7.1,29.93,West,275,0.0,4.0,57,0.00,,,0.00,Wunderground v.1.15,2013-01-21 14:01:00,
2013-01-21 09:03:00,19.8,6.2,29.93,West,270,1.0,4.0,55,0.00,,,0.00,Wunderground v.1.15,2013-01-21 14:03:00,
2013-01-21 09:06:00,19.7,6.1,29.93,WNW,290,1.0,5.0,55,0.00,,,0.00,Wunderground v.1.15,2013-01-21 14:06:00,
2013-01-21 09:07:00,19.8,6.6,29.93,SSW,194,2.0,6.0,56,0.00,,,0.00,Wunderground v.1.15,2013-01-21 14:07:00,
2013-01-21 09:08:00,19.8,6.2,29.93,SSW,198,2.0,6.0,55,0.00,,,0.00,Wunderground v.1.15,2013-01-21 14:08:00,
2013-01-21 09:10:00,19.9,6.3,29.93,SSW,197,2.0,5.0,55,0.00,,,0.00,Wunderground v.1.15,2013-01-21 14:10:00,
2013-01-21 09:14:00,20.0,6.4,29.93,SW,235,2.0,5.0,55,0.00,,,0.00,Wunderground v.1.15,2013-01-21 14:14:00,
2013-01-21 09:16:00,20.1,6.5,29.93,WSW,240,3.0,5.0,55,0.00,,,0.00,Wunderground v.1.15,2013-01-21 14:16:00,
2013-01-21 09:17:00,20.1,6.5,29.93,NW,306,2.0,5.0,55,0.00,,,0.00,Wunderground v.1.15,2013-01-21 14:17:00,
2013-01-21 09:19:00,20.1,6.5,29.93,West,261,2.0,5.0,55,0.00,,,0.00,Wunderground v.1.15,2013-01-21 14:19:00,
2013-01-21 09:21:00,20.2,7.0,29.94,SSW,200,2.0,3.0,56,0.00,,,0.00,Wunderground v.1.15,2013-01-21 14:21:00,
2013-01-21 09:23:00,20.3,6.7,29.94,SW,228,3.0,6.0,55,0.00,,,0.00,Wunderground v.1.15,2013-01-21 14:23:00,
2013-01-21 09:24:00,20.3,6.7,29.93,West,271,3.0,6.0,55,0.00,,,0.00,Wunderground v.1.15,2013-01-21 14:24:00,
2013-01-21 09:26:00,20.2,6.6,29.93,WSW,258,3.0,6.0,55,0.00,,,0.00,Wunderground v.1.15,2013-01-21 14:26:00,
2013-01-21 09:27:00,20.2,6.2,29.93,WSW,251,3.0,6.0,54,0.00,,,0.00,Wunderground v.1.15,2013-01-21 14:27:00,
2013-01-21 09:28:00,20.2,6.6,29.93,WSW,252,3.0,6.0,55,0.00,,,0.00,Wunderground v.1.15,2013-01-21 14:28:00,
2013-01-21 09:30:00,20.3,6.7,29.94,WSW,252,3.0,3.0,55,0.00,,,0.00,Wunderground v.1.15,2013-01-21 14:30:00,
2013-01-21 09:33:00,20.3,6.7,29.94,WSW,252,2.0,4.0,55,0.00,,,0.00,Wunderground v.1.15,2013-01-21 14:33:00,
2013-01-21 09:35:00,20.3,6.7,29.94,WSW,252,1.0,4.0,55,0.00,,,0.00,Wunderground v.1.15,2013-01-21 14:35:00,
2013-01-21 09:36:00,20.3,7.1,29.94,South,170,1.0,5.0,56,0.00,,,0.00,Wunderground v.1.15,2013-01-21 14:36:00,
2013-01-21 09:39:00,20.6,7.4,29.93,SSW,211,1.0,5.0,56,0.00,,,0.00,Wunderground v.1.15,2013-01-21 14:39:00,
2013-01-21 09:41:00,20.8,7.6,29.94,NW,321,2.0,4.0,56,0.00,,,0.00,Wunderground v.1.15,2013-01-21 14:41:00,
2013-01-21 09:44:00,20.7,7.1,29.93,West,267,2.0,4.0,55,0.00,,,0.00,Wunderground v.1.15,2013-01-21 14:44:00,
2013-01-21 09:45:00,20.7,7.1,29.94,WSW,246,2.0,7.0,55,0.00,,,0.00,Wunderground v.1.15,2013-01-21 14:45:00,
2013-01-21 09:47:00,20.7,7.1,29.94,WNW,284,3.0,7.0,55,0.00,,,0.00,Wunderground v.1.15,2013-01-21 14:47:00,
2013-01-21 09:50:00,20.6,7.0,29.94,SW,234,3.0,3.0,55,0.00,,,0.00,Wunderground v.1.15,2013-01-21 14:50:00,
2013-01-21 09:51:00,20.7,7.5,29.94,WSW,254,3.0,4.0,56,0.00,,,0.00,Wunderground v.1.15,2013-01-21 14:51:00,
2013-01-21 09:52:00,20.7,7.5,29.94,South,191,3.0,4.0,56,0.00,,,0.00,Wunderground v.1.15,2013-01-21 14:52:00,
2013-01-21 09:53:00,20.8,7.6,29.94,NW,306,3.0,4.0,56,0.00,,,0.00,Wunderground v.1.15,2013-01-21 14:53:00,
2013-01-21 09:56:00,20.9,7.6,29.94,South,185,3.0,4.0,56,0.00,,,0.00,Wunderground v.1.15,2013-01-21 14:56:00,
2013-01-21 09:57:00,20.8,7.6,29.94,South,185,2.0,4.0,56,0.00,,,0.00,Wunderground v.1.15,2013-01-21 14:57:00,
2013-01-21 09:58:00,20.8,7.2,29.94,WSW,254,2.0,5.0,55,0.00,,,0.00,Wunderground v.1.15,2013-01-21 14:58:00,
2013-01-21 09:59:00,20.8,7.2,29.94,West,279,2.0,6.0,55,0.00,,,0.00,Wunderground v.1.15,2013-01-21 14:59:00,
2013-01-21 10:04:00,20.7,7.5,29.93,SSE,168,3.0,8.0,56,0.00,,,0.00,Wunderground v.1.15,2013-01-21 15:04:00,
2013-01-21 10:05:00,20.8,7.6,29.93,South,172,3.0,8.0,56,0.00,,,0.00,Wunderground v.1.15,2013-01-21 15:05:00,
2013-01-21 10:06:00,20.8,7.6,29.93,WSW,255,4.0,8.0,56,0.00,,,0.00,Wunderground v.1.15,2013-01-21 15:06:00,
2013-01-21 10:09:00,20.8,7.6,29.93,SW,229,4.0,8.0,56,0.00,,,0.00,Wunderground v.1.15,2013-01-21 15:09:00,
2013-01-21 10:11:00,20.9,7.6,29.93,West,270,4.0,8.0,56,0.00,,,0.00,Wunderground v.1.15,2013-01-21 15:11:00,
2013-01-21 10:14:00,20.9,7.2,29.93,WNW,288,3.0,8.0,55,0.00,,,0.00,Wunderground v.1.15,2013-01-21 15:14:00,
2013-01-21 10:15:00,20.8,7.2,29.93,WNW,288,2.0,8.0,55,0.00,,,0.00,Wunderground v.1.15,2013-01-21 15:15:00,
2013-01-21 10:16:00,20.8,7.6,29.93,South,188,2.0,8.0,56,0.00,,,0.00,Wunderground v.1.15,2013-01-21 15:16:00,
2013-01-21 10:20:00,21.3,8.0,29.93,SW,221,1.0,1.0,56,0.00,,,0.00,Wunderground v.1.15,2013-01-21 15:20:00,
2013-01-21 10:21:00,21.4,8.1,29.93,SW,219,1.0,3.0,56,0.00,,,0.00,Wunderground v.1.15,2013-01-21 15:21:00,
2013-01-21 10:23:00,21.2,7.5,29.93,West,279,1.0,8.0,55,0.00,,,0.00,Wunderground v.1.15,2013-01-21 15:23:00,
2013-01-21 10:25:00,21.1,7.4,29.93,WSW,246,1.0,8.0,55,0.00,,,0.00,Wunderground v.1.15,2013-01-21 15:25:00,
2013-01-21 10:29:00,21.3,8.0,29.93,South,175,3.0,9.0,56,0.00,,,0.00,Wunderground v.1.15,2013-01-21 15:29:00,
2013-01-21 10:31:00,21.3,7.6,29.93,West,275,4.0,8.0,55,0.00,,,0.00,Wunderground v.1.15,2013-01-21 15:31:00,
2013-01-21 10:32:00,21.3,8.0,29.93,SSW,212,4.0,8.0,56,0.00,,,0.00,Wunderground v.1.15,2013-01-21 15:32:00,
2013-01-21 10:36:00,21.3,7.6,29.93,West,262,5.0,8.0,55,0.00,,,0.00,Wunderground v.1.15,2013-01-21 15:36:00,
2013-01-21 10:37:00,21.2,7.5,29.93,West,265,6.0,8.0,55,0.00,,,0.00,Wunderground v.1.15,2013-01-21 15:37:00,
2013-01-21 10:38:00,21.1,7.0,29.93,West,264,5.0,8.0,54,0.00,,,0.00,Wunderground v.1.15,2013-01-21 15:38:00,
2013-01-21 10:41:00,21.1,7.4,29.92,West,265,3.0,8.0,55,0.00,,,0.00,Wunderground v.1.15,2013-01-21 15:41:00,
2013-01-21 10:43:00,21.4,8.1,29.92,South,178,2.0,8.0,56,0.00,,,0.00,Wunderground v.1.15,2013-01-21 15:43:00,
2013-01-21 10:44:00,21.7,8.4,29.92,WNW,294,2.0,8.0,56,0.00,,,0.00,Wunderground v.1.15,2013-01-21 15:44:00,
2013-01-21 10:46:00,21.7,8.0,29.92,West,271,3.0,8.0,55,0.00,,,0.00,Wunderground v.1.15,2013-01-21 15:46:00,
2013-01-21 10:49:00,22.1,8.4,29.92,NNW,343,2.0,8.0,55,0.00,,,0.00,Wunderground v.1.15,2013-01-21 15:49:00,
2013-01-21 10:50:00,22.1,8.0,29.92,NNW,345,2.0,2.0,54,0.00,,,0.00,Wunderground v.1.15,2013-01-21 15:50:00,
2013-01-21 10:52:00,21.8,7.7,29.91,North,351,2.0,8.0,54,0.00,,,0.00,Wunderground v.1.15,2013-01-21 15:52:00,
2013-01-21 10:54:00,22.0,8.3,29.91,WSW,258,2.0,8.0,55,0.00,,,0.00,Wunderground v.1.15,2013-01-21 15:54:00,
2013-01-21 10:55:00,22.0,7.9,29.91,South,180,2.0,8.0,54,0.00,,,0.00,Wunderground v.1.15,2013-01-21 15:55:00,
2013-01-21 10:57:00,22.1,8.4,29.91,South,180,1.0,8.0,55,0.00,,,0.00,Wunderground v.1.15,2013-01-21 15:57:00,
2013-01-21 10:58:00,22.0,8.3,29.92,South,180,1.0,8.0,55,0.00,,,0.00,Wunderground v.1.15,2013-01-21 15:58:00,
2013-01-21 11:00:00,22.0,7.9,29.91,West,275,1.0,9.0,54,0.00,,,0.00,Wunderground v.1.15,2013-01-21 16:00:00,
2013-01-21 11:03:00,22.4,9.1,29.91,South,180,2.0,9.0,56,0.00,,,0.00,Wunderground v.1.15,2013-01-21 16:03:00,
2013-01-21 11:06:00,22.1,7.6,29.91,West,277,2.0,9.0,53,0.00,,,0.00,Wunderground v.1.15,2013-01-21 16:06:00,
2013-01-21 11:07:00,22.0,7.9,29.91,West,271,1.0,9.0,54,0.00,,,0.00,Wunderground v.1.15,2013-01-21 16:07:00,
2013-01-21 11:08:00,21.9,7.8,29.91,West,270,2.0,9.0,54,0.00,,,0.00,Wunderground v.1.15,2013-01-21 16:08:00,
2013-01-21 11:12:00,21.8,7.7,29.90,SW,234,3.0,9.0,54,0.00,,,0.00,Wunderground v.1.15,2013-01-21 16:12:00,
2013-01-21 11:13:00,21.7,7.6,29.90,WNW,290,3.0,9.0,54,0.00,,,0.00,Wunderground v.1.15,2013-01-21 16:13:00,
2013-01-21 11:15:00,21.6,7.9,29.90,WNW,294,4.0,9.0,55,0.00,,,0.00,Wunderground v.1.15,2013-01-21 16:15:00,
2013-01-21 11:17:00,21.8,7.7,29.90,West,263,4.0,9.0,54,0.00,,,0.00,Wunderground v.1.15,2013-01-21 16:17:00,
2013-01-21 11:20:00,22.0,7.9,29.89,NNW,334,4.0,4.0,54,0.00,,,0.00,Wunderground v.1.15,2013-01-21 16:20:00,
2013-01-21 11:23:00,22.4,8.2,29.89,WSW,256,3.0,9.0,54,0.00,,,0.00,Wunderground v.1.15,2013-01-21 16:23:00,
2013-01-21 11:24:00,22.2,7.6,29.89,WSW,252,3.0,9.0,53,0.00,,,0.00,Wunderground v.1.15,2013-01-21 16:24:00,
2013-01-21 11:26:00,22.0,7.9,29.89,South,187,4.0,9.0,54,0.00,,,0.00,Wunderground v.1.15,2013-01-21 16:26:00,
2013-01-21 11:31:00,22.1,8.4,29.89,SW,220,5.0,9.0,55,0.00,,,0.00,Wunderground v.1.15,2013-01-21 16:31:00,
2013-01-21 11:32:00,22.2,8.5,29.89,SSE,148,5.0,9.0,55,0.00,,,0.00,Wunderground v.1.15,2013-01-21 16:32:00,
2013-01-21 11:37:00,22.1,8.4,29.88,South,183,5.0,9.0,55,0.00,,,0.00,Wunderground v.1.15,2013-01-21 16:37:00,
2013-01-21 11:38:00,22.2,8.5,29.88,South,178,5.0,9.0,55,0.00,,,0.00,Wunderground v.1.15,2013-01-21 16:38:00,
2013-01-21 11:39:00,22.4,9.4,29.88,South,171,5.0,9.0,57,0.00,,,0.00,Wunderground v.1.15,2013-01-21 16:39:00,
2013-01-21 11:42:00,22.1,8.0,29.88,SW,235,5.0,9.0,54,0.00,,,0.00,Wunderground v.1.15,2013-01-21 16:42:00,
2013-01-21 11:43:00,22.1,8.4,29.88,SSE,166,5.0,9.0,55,0.00,,,0.00,Wunderground v.1.15,2013-01-21 16:43:00,
2013-01-21 11:47:00,22.1,8.4,29.88,SSE,162,6.0,11.0,55,0.00,,,0.00,Wunderground v.1.15,2013-01-21 16:47:00,
2013-01-21 11:50:00,22.2,8.9,29.88,SSE,163,7.0,7.0,56,0.00,,,0.00,Wunderground v.1.15,2013-01-21 16:50:00,
2013-01-21 11:53:00,22.2,8.5,29.88,South,175,7.0,9.0,55,0.00,,,0.00,Wunderground v.1.15,2013-01-21 16:53:00,
2013-01-21 11:55:00,22.2,8.9,29.88,South,185,8.0,9.0,56,0.00,,,0.00,Wunderground v.1.15,2013-01-21 16:55:00,
2013-01-21 11:56:00,22.2,8.9,29.88,South,172,8.0,11.0,56,0.00,,,0.00,Wunderground v.1.15,2013-01-21 16:56:00,
2013-01-21 11:59:00,22.2,8.9,29.87,SSE,164,8.0,11.0,56,0.00,,,0.00,Wunderground v.1.15,2013-01-21 16:59:00,
2013-01-21 12:00:00,22.4,9.4,29.87,SSE,164,8.0,8.0,57,0.00,,,0.00,Wunderground v.1.15,2013-01-21 17:00:00,
2013-01-21 12:04:00,22.2,8.5,29.87,SSW,198,8.0,11.0,55,0.00,,,0.00,Wunderground v.1.15,2013-01-21 17:04:00,
2013-01-21 12:06:00,22.1,8.8,29.87,South,171,7.0,11.0,56,0.00,,,0.00,Wunderground v.1.15,2013-01-21 17:06:00,
2013-01-21 12:12:00,22.3,9.4,29.86,SSE,158,6.0,12.0,57,0.00,,,0.00,Wunderground v.1.15,2013-01-21 17:12:00,
2013-01-21 12:13:00,22.4,9.4,29.86,SSE,152,6.0,12.0,57,0.00,,,0.00,Wunderground v.1.15,2013-01-21 17:13:00,
2013-01-21 12:15:00,22.4,9.1,29.86,SSE,150,7.0,12.0,56,0.00,,,0.00,Wunderground v.1.15,2013-01-21 17:15:00,
2013-01-21 12:16:00,22.5,9.9,29.86,SSE,166,7.0,12.0,58,0.00,,,0.00,Wunderground v.1.15,2013-01-21 17:16:00,
2013-01-21 12:17:00,22.5,9.5,29.86,SSE,165,7.0,12.0,57,0.00,,,0.00,Wunderground v.1.15,2013-01-21 17:17:00,
2013-01-21 12:22:00,22.7,9.3,29.86,SSE,166,7.0,11.0,56,0.00,,,0.00,Wunderground v.1.15,2013-01-21 17:22:00,
2013-01-21 12:23:00,22.7,9.3,29.86,SSW,205,7.0,11.0,56,0.00,,,0.00,Wunderground v.1.15,2013-01-21 17:23:00,
2013-01-21 12:25:00,22.8,9.8,29.86,South,171,7.0,11.0,57,0.00,,,0.00,Wunderground v.1.15,2013-01-21 17:25:00,
2013-01-21 12:27:00,23.0,10.4,29.86,SSE,167,7.0,11.0,58,0.00,,,0.00,Wunderground v.1.15,2013-01-21 17:27:00,
2013-01-21 12:28:00,22.9,9.9,29.86,SSE,163,7.0,11.0,57,0.00,,,0.00,Wunderground v.1.15,2013-01-21 17:28:00,
2013-01-21 12:29:00,23.1,10.5,29.86,SSE,158,7.0,11.0,58,0.00,,,0.00,Wunderground v.1.15,2013-01-21 17:29:00,
2013-01-21 12:30:00,23.1,10.5,29.85,SE,142,8.0,11.0,58,0.00,,,0.00,Wunderground v.1.15,2013-01-21 17:30:00,
2013-01-21 12:32:00,23.5,10.9,29.85,SSE,161,8.0,11.0,58,0.00,,,0.00,Wunderground v.1.15,2013-01-21 17:32:00,
2013-01-21 12:33:00,23.6,11.0,29.85,SSW,196,8.0,11.0,58,0.00,,,0.00,Wunderground v.1.15,2013-01-21 17:33:00,
2013-01-21 12:35:00,23.3,9.9,29.85,SSW,210,9.0,11.0,56,0.00,,,0.00,Wunderground v.1.15,2013-01-21 17:35:00,
2013-01-21 12:36:00,23.1,9.7,29.85,SW,218,8.0,11.0,56,0.00,,,0.00,Wunderground v.1.15,2013-01-21 17:36:00,
2013-01-21 12:38:00,23.0,10.0,29.85,SSE,153,8.0,11.0,57,0.00,,,0.00,Wunderground v.1.15,2013-01-21 17:38:00,
2013-01-21 12:40:00,23.1,10.1,29.85,SSE,162,8.0,11.0,57,0.00,,,0.00,Wunderground v.1.15,2013-01-21 17:40:00,
2013-01-21 12:41:00,23.0,10.0,29.85,SSE,161,8.0,15.0,57,0.00,,,0.00,Wunderground v.1.15,2013-01-21 17:41:00,
2013-01-21 12:44:00,23.0,10.4,29.85,SSE,166,9.0,15.0,58,0.00,,,0.00,Wunderground v.1.15,2013-01-21 17:44:00,
2013-01-21 12:47:00,23.2,11.0,29.85,SE,143,9.0,15.0,59,0.00,,,0.00,Wunderground v.1.15,2013-01-21 17:47:00,
2013-01-21 12:49:00,23.6,11.0,29.85,SSE,162,9.0,15.0,58,0.00,,,0.00,Wunderground v.1.15,2013-01-21 17:49:00,
2013-01-21 12:50:00,23.8,11.2,29.85,SSE,150,9.0,9.0,58,0.00,,,0.00,Wunderground v.1.15,2013-01-21 17:50:00,
2013-01-21 12:51:00,24.0,11.7,29.85,SSE,157,9.0,12.0,59,0.00,,,0.00,Wunderground v.1.15,2013-01-21 17:51:00,
2013-01-21 12:56:00,23.6,11.0,29.85,SSE,157,9.0,12.0,58,0.00,,,0.00,Wunderground v.1.15,2013-01-21 17:56:00,
2013-01-21 12:57:00,23.6,10.6,29.84,SSE,150,9.0,12.0,57,0.00,,,0.00,Wunderground v.1.15,2013-01-21 17:57:00,
2013-01-21 13:00:00,23.5,10.5,29.84,SSW,192,10.0,10.0,57,0.00,,,0.00,Wunderground v.1.15,2013-01-21 18:00:00,
2013-01-21 13:03:00,23.6,11.0,29.84,SSE,161,9.0,15.0,58,0.00,,,0.00,Wunderground v.1.15,2013-01-21 18:03:00,
2013-01-21 13:05:00,23.8,11.2,29.84,SSE,153,9.0,15.0,58,0.00,,,0.00,Wunderground v.1.15,2013-01-21 18:05:00,
2013-01-21 13:08:00,23.9,10.9,29.83,SE,146,9.0,15.0,57,0.00,,,0.00,Wunderground v.1.15,2013-01-21 18:08:00,
2013-01-21 13:09:00,23.8,10.4,29.83,SSE,157,9.0,15.0,56,0.00,,,0.00,Wunderground v.1.15,2013-01-21 18:09:00,
2013-01-21 13:10:00,23.9,10.5,29.83,SSE,166,8.0,8.0,56,0.00,,,0.00,Wunderground v.1.15,2013-01-21 18:10:00,
2013-01-21 13:16:00,24.1,11.0,29.83,SE,144,9.0,15.0,57,0.00,,,0.00,Wunderground v.1.15,2013-01-21 18:16:00,
2013-01-21 13:18:00,23.9,10.5,29.83,SSE,157,9.0,15.0,56,0.00,,,0.00,Wunderground v.1.15,2013-01-21 18:18:00,
2013-01-21 13:21:00,24.2,10.7,29.83,SE,144,10.0,15.0,56,0.00,,,0.00,Wunderground v.1.15,2013-01-21 18:21:00,
2013-01-21 13:24:00,24.1,10.6,29.83,SSE,159,10.0,15.0,56,0.00,,,0.00,Wunderground v.1.15,2013-01-21 18:24:00,
2013-01-21 13:25:00,24.2,10.7,29.83,SSE,165,9.0,15.0,56,0.00,,,0.00,Wunderground v.1.15,2013-01-21 18:25:00,
2013-01-21 13:28:00,24.3,10.8,29.83,SSE,162,9.0,15.0,56,0.00,,,0.00,Wunderground v.1.15,2013-01-21 18:28:00,
2013-01-21 13:30:00,24.3,10.4,29.83,SSE,162,9.0,15.0,55,0.00,,,0.00,Wunderground v.1.15,2013-01-21 18:30:00,
2013-01-21 13:33:00,24.3,10.8,29.83,SSE,159,10.0,15.0,56,0.00,,,0.00,Wunderground v.1.15,2013-01-21 18:33:00,
2013-01-21 13:34:00,24.1,9.8,29.83,South,170,10.0,15.0,54,0.00,,,0.00,Wunderground v.1.15,2013-01-21 18:34:00,
2013-01-21 13:36:00,24.3,10.8,29.83,South,173,9.0,15.0,56,0.00,,,0.00,Wunderground v.1.15,2013-01-21 18:36:00,
2013-01-21 13:40:00,24.4,10.9,29.83,South,169,8.0,8.0,56,0.00,,,0.00,Wunderground v.1.15,2013-01-21 18:40:00,
2013-01-21 13:41:00,24.6,11.1,29.83,SSE,166,8.0,10.0,56,0.00,,,0.00,Wunderground v.1.15,2013-01-21 18:41:00,
2013-01-21 13:43:00,24.3,10.0,29.83,South,172,7.0,15.0,54,0.00,,,0.00,Wunderground v.1.15,2013-01-21 18:43:00,
2013-01-21 13:45:00,24.2,9.9,29.83,South,179,6.0,15.0,54,0.00,,,0.00,Wunderground v.1.15,2013-01-21 18:45:00,
2013-01-21 13:46:00,24.1,9.8,29.83,South,188,7.0,15.0,54,0.00,,,0.00,Wunderground v.1.15,2013-01-21 18:46:00,
2013-01-21 13:47:00,24.0,9.7,29.83,South,185,6.0,15.0,54,0.00,,,0.00,Wunderground v.1.15,2013-01-21 18:47:00,
2013-01-21 13:51:00,24.3,10.0,29.82,SSE,151,5.0,15.0,54,0.00,,,0.00,Wunderground v.1.15,2013-01-21 18:51:00,
2013-01-21 13:52:00,24.4,10.5,29.82,SSE,165,5.0,15.0,55,0.00,,,0.00,Wunderground v.1.15,2013-01-21 18:52:00,
2013-01-21 13:54:00,24.7,10.8,29.82,SSE,167,5.0,15.0,55,0.00,,,0.00,Wunderground v.1.15,2013-01-21 18:54:00,
2013-01-21 13:56:00,24.7,10.4,29.82,SSE,157,6.0,15.0,54,0.00,,,0.00,Wunderground v.1.15,2013-01-21 18:56:00,
2013-01-21 13:58:00,24.7,10.8,29.83,SE,144,7.0,15.0,55,0.00,,,0.00,Wunderground v.1.15,2013-01-21 18:58:00,
2013-01-21 14:02:00,24.7,10.8,29.82,SSW,200,8.0,13.0,55,0.00,,,0.00,Wunderground v.1.15,2013-01-21 19:02:00,
2013-01-21 14:03:00,24.6,10.3,29.82,SSW,198,8.0,13.0,54,0.00,,,0.00,Wunderground v.1.15,2013-01-21 19:03:00,
2013-01-21 14:07:00,24.3,10.0,29.82,SSE,168,8.0,13.0,54,0.00,,,0.00,Wunderground v.1.15,2013-01-21 19:07:00,
2013-01-21 14:09:00,24.4,10.9,29.82,SSE,163,7.0,13.0,56,0.00,,,0.00,Wunderground v.1.15,2013-01-21 19:09:00,
2013-01-21 14:12:00,24.5,11.0,29.82,South,171,7.0,12.0,56,0.00,,,0.00,Wunderground v.1.15,2013-01-21 19:12:00,
2013-01-21 14:13:00,24.4,10.5,29.82,SSE,166,7.0,13.0,55,0.00,,,0.00,Wunderground v.1.15,2013-01-21 19:13:00,
2013-01-21 14:14:00,24.4,10.1,29.82,SW,236,7.0,13.0,54,0.00,,,0.00,Wunderground v.1.15,2013-01-21 19:14:00,
2013-01-21 14:18:00,24.4,9.7,29.82,South,169,6.0,13.0,53,0.00,,,0.00,Wunderground v.1.15,2013-01-21 19:18:00,
2013-01-21 14:20:00,24.5,10.2,29.82,South,187,6.0,6.0,54,0.00,,,0.00,Wunderground v.1.15,2013-01-21 19:20:00,
2013-01-21 14:21:00,24.6,10.3,29.81,South,169,6.0,13.0,54,0.00,,,0.00,Wunderground v.1.15,2013-01-21 19:21:00,
2013-01-21 14:23:00,24.5,9.8,29.81,WNW,286,6.0,13.0,53,0.00,,,0.00,Wunderground v.1.15,2013-01-21 19:23:00,
2013-01-21 14:24:00,24.5,9.8,29.81,West,266,5.0,13.0,53,0.00,,,0.00,Wunderground v.1.15,2013-01-21 19:24:00,
2013-01-21 14:26:00,24.6,9.9,29.81,South,186,5.0,13.0,53,0.00,,,0.00,Wunderground v.1.15,2013-01-21 19:26:00,
2013-01-21 14:27:00,24.6,10.3,29.81,SSE,167,4.0,13.0,54,0.00,,,0.00,Wunderground v.1.15,2013-01-21 19:27:00,
2013-01-21 14:32:00,24.8,10.1,29.81,South,175,3.0,13.0,53,0.00,,,0.00,Wunderground v.1.15,2013-01-21 19:32:00,
2013-01-21 14:33:00,24.8,10.1,29.81,SSE,166,3.0,13.0,53,0.00,,,0.00,Wunderground v.1.15,2013-01-21 19:33:00,
2013-01-21 14:37:00,24.9,10.6,29.81,SSE,165,4.0,13.0,54,0.00,,,0.00,Wunderground v.1.15,2013-01-21 19:37:00,
2013-01-21 14:38:00,25.0,11.1,29.81,South,172,5.0,13.0,55,0.00,,,0.00,Wunderground v.1.15,2013-01-21 19:38:00,
2013-01-21 14:41:00,25.0,10.7,29.81,SSW,208,6.0,13.0,54,0.00,,,0.00,Wunderground v.1.15,2013-01-21 19:41:00,
2013-01-21 14:43:00,24.9,9.7,29.81,SSW,202,6.0,13.0,52,0.00,,,0.00,Wunderground v.1.15,2013-01-21 19:43:00,
2013-01-21 14:46:00,24.8,9.6,29.81,SW,217,5.0,13.0,52,0.00,,,0.00,Wunderground v.1.15,2013-01-21 19:46:00,
2013-01-21 14:47:00,24.9,10.2,29.80,SSE,163,4.0,13.0,53,0.00,,,0.00,Wunderground v.1.15,2013-01-21 19:47:00,
2013-01-21 14:48:00,25.0,10.7,29.81,SSE,167,4.0,13.0,54,0.00,,,0.00,Wunderground v.1.15,2013-01-21 19:48:00,
2013-01-21 14:51:00,24.9,10.2,29.81,SW,221,4.0,13.0,53,0.00,,,0.00,Wunderground v.1.15,2013-01-21 19:51:00,
2013-01-21 14:54:00,24.7,10.0,29.81,South,178,5.0,13.0,53,0.00,,,0.00,Wunderground v.1.15,2013-01-21 19:54:00,
2013-01-21 14:55:00,24.7,9.5,29.81,SW,222,5.0,13.0,52,0.00,,,0.00,Wunderground v.1.15,2013-01-21 19:55:00,
2013-01-21 14:58:00,24.6,9.9,29.81,South,178,6.0,13.0,53,0.00,,,0.00,Wunderground v.1.15,2013-01-21 19:58:00,
2013-01-21 14:59:00,24.6,10.3,29.81,South,174,6.0,13.0,54,0.00,,,0.00,Wunderground v.1.15,2013-01-21 19:59:00,
2013-01-21 15:02:00,24.6,9.9,29.81,SSE,165,6.0,9.0,53,0.00,,,0.00,Wunderground v.1.15,2013-01-21 20:02:00,
2013-01-21 15:03:00,24.6,10.3,29.80,South,181,6.0,11.0,54,0.00,,,0.00,Wunderground v.1.15,2013-01-21 20:03:00,
2013-01-21 15:06:00,24.7,10.4,29.80,South,180,7.0,11.0,54,0.00,,,0.00,Wunderground v.1.15,2013-01-21 20:06:00,
2013-01-21 15:07:00,24.7,10.4,29.80,SSW,192,7.0,11.0,54,0.00,,,0.00,Wunderground v.1.15,2013-01-21 20:07:00,
2013-01-21 15:08:00,24.7,10.4,29.81,SSE,155,7.0,11.0,54,0.00,,,0.00,Wunderground v.1.15,2013-01-21 20:08:00,
2013-01-21 15:12:00,24.7,10.0,29.80,SW,229,6.0,11.0,53,0.00,,,0.00,Wunderground v.1.15,2013-01-21 20:12:00,
2013-01-21 15:13:00,24.7,10.0,29.80,SW,222,6.0,11.0,53,0.00,,,0.00,Wunderground v.1.15,2013-01-21 20:13:00,
2013-01-21 15:14:00,24.6,9.9,29.80,SSW,197,6.0,11.0,53,0.00,,,0.00,Wunderground v.1.15,2013-01-21 20:14:00,
2013-01-21 15:18:00,24.6,10.3,29.80,South,181,5.0,11.0,54,0.00,,,0.00,Wunderground v.1.15,2013-01-21 20:18:00,
2013-01-21 15:20:00,24.6,10.3,29.79,SSE,158,4.0,4.0,54,0.00,,,0.00,Wunderground v.1.15,2013-01-21 20:20:00,
2013-01-21 15:23:00,24.6,10.3,29.79,South,188,4.0,11.0,54,0.00,,,0.00,Wunderground v.1.15,2013-01-21 20:23:00,
2013-01-21 15:25:00,24.6,10.3,29.79,South,184,4.0,11.0,54,0.00,,,0.00,Wunderground v.1.15,2013-01-21 20:25:00,
2013-01-21 15:26:00,24.6,10.7,29.79,SSE,165,4.0,11.0,55,0.00,,,0.00,Wunderground v.1.15,2013-01-21 20:26:00,
2013-01-21 15:27:00,24.6,11.1,29.79,SSE,166,4.0,11.0,56,0.00,,,0.00,Wunderground v.1.15,2013-01-21 20:27:00,
2013-01-21 15:30:00,24.6,11.1,29.79,SSE,166,4.0,11.0,56,0.00,,,0.00,Wunderground v.1.15,2013-01-21 20:30:00,
2013-01-21 15:32:00,24.6,11.1,29.79,SSE,156,4.0,11.0,56,0.00,,,0.00,Wunderground v.1.15,2013-01-21 20:32:00,
2013-01-21 15:33:00,24.6,11.1,29.79,SSE,160,4.0,11.0,56,0.00,,,0.00,Wunderground v.1.15,2013-01-21 20:33:00,
2013-01-21 15:35:00,24.5,10.6,29.79,SSE,168,5.0,11.0,55,0.00,,,0.00,Wunderground v.1.15,2013-01-21 20:35:00,
2013-01-21 15:36:00,24.5,10.6,29.79,SSE,168,5.0,11.0,55,0.00,,,0.00,Wunderground v.1.15,2013-01-21 20:36:00,
2013-01-21 15:39:00,24.6,11.1,29.78,SSE,167,6.0,11.0,56,0.00,,,0.00,Wunderground v.1.15,2013-01-21 20:39:00,
2013-01-21 15:40:00,24.5,11.0,29.78,SSE,155,6.0,6.0,56,0.00,,,0.00,Wunderground v.1.15,2013-01-21 20:40:00,
2013-01-21 15:45:00,24.6,11.1,29.78,SSE,153,6.0,11.0,56,0.00,,,0.00,Wunderground v.1.15,2013-01-21 20:45:00,
2013-01-21 15:46:00,24.5,11.0,29.78,SSE,162,6.0,11.0,56,0.00,,,0.00,Wunderground v.1.15,2013-01-21 20:46:00,
2013-01-21 15:52:00,24.6,11.1,29.79,SSE,168,6.0,11.0,56,0.00,,,0.00,Wunderground v.1.15,2013-01-21 20:52:00,
2013-01-21 15:53:00,24.5,11.0,29.79,South,177,6.0,11.0,56,0.00,,,0.00,Wunderground v.1.15,2013-01-21 20:53:00,
2013-01-21 15:55:00,24.5,11.0,29.80,South,171,6.0,11.0,56,0.00,,,0.00,Wunderground v.1.15,2013-01-21 20:55:00,
2013-01-21 15:57:00,24.5,11.0,29.80,SSE,167,6.0,11.0,56,0.00,,,0.00,Wunderground v.1.15,2013-01-21 20:57:00,
2013-01-21 16:00:00,24.5,11.0,29.80,South,170,7.0,11.0,56,0.00,,,0.00,Wunderground v.1.15,2013-01-21 21:00:00,
2013-01-21 16:03:00,24.3,11.2,29.80,SSE,161,9.0,11.0,57,0.00,,,0.00,Wunderground v.1.15,2013-01-21 21:03:00,
2013-01-21 16:04:00,24.2,11.5,29.80,SSE,164,9.0,11.0,58,0.00,,,0.00,Wunderground v.1.15,2013-01-21 21:04:00,
2013-01-21 16:08:00,24.1,11.8,29.79,SSE,162,10.0,11.0,59,0.00,,,0.00,Wunderground v.1.15,2013-01-21 21:08:00,
2013-01-21 16:09:00,24.1,12.2,29.79,SE,143,10.0,11.0,60,0.00,,,0.00,Wunderground v.1.15,2013-01-21 21:09:00,
2013-01-21 16:13:00,24.0,12.1,29.79,SE,145,8.0,11.0,60,0.00,,,0.00,Wunderground v.1.15,2013-01-21 21:13:00,
2013-01-21 16:14:00,24.0,12.5,29.79,SSE,167,8.0,11.0,61,0.00,,,0.00,Wunderground v.1.15,2013-01-21 21:14:00,
2013-01-21 16:19:00,23.8,13.0,29.79,South,173,9.0,11.0,63,0.00,,,0.00,Wunderground v.1.15,2013-01-21 21:19:00,
2013-01-21 16:20:00,23.7,12.9,29.79,South,182,9.0,9.0,63,0.00,,,0.00,Wunderground v.1.15,2013-01-21 21:20:00,
2013-01-21 16:21:00,23.7,13.3,29.79,SSE,153,8.0,11.0,64,0.00,,,0.00,Wunderground v.1.15,2013-01-21 21:21:00,
2013-01-21 16:25:00,23.6,13.2,29.80,South,172,8.0,11.0,64,0.00,,,0.00,Wunderground v.1.15,2013-01-21 21:25:00,
2013-01-21 16:28:00,23.6,13.5,29.79,SSW,201,6.0,11.0,65,0.00,,,0.00,Wunderground v.1.15,2013-01-21 21:28:00,
2013-01-21 16:31:00,23.5,14.1,29.79,SSW,194,5.0,6.0,67,0.00,,,0.00,Wunderground v.1.15,2013-01-21 21:31:00,
2013-01-21 16:32:00,23.5,14.1,29.79,West,260,5.0,11.0,67,0.00,,,0.00,Wunderground v.1.15,2013-01-21 21:32:00,
2013-01-21 16:35:00,23.3,14.3,29.79,WSW,254,3.0,11.0,68,0.00,,,0.00,Wunderground v.1.15,2013-01-21 21:35:00,
2013-01-21 16:38:00,23.3,14.6,29.78,WSW,237,3.0,11.0,69,0.00,,,0.00,Wunderground v.1.15,2013-01-21 21:38:00,
2013-01-21 16:40:00,23.2,14.5,29.78,SSE,162,3.0,11.0,69,0.00,,,0.00,Wunderground v.1.15,2013-01-21 21:40:00,
2013-01-21 16:44:00,23.2,15.2,29.78,SSW,197,4.0,11.0,71,0.00,,,0.00,Wunderground v.1.15,2013-01-21 21:44:00,
2013-01-21 16:45:00,23.2,15.2,29.79,South,177,4.0,11.0,71,0.00,,,0.00,Wunderground v.1.15,2013-01-21 21:45:00,
2013-01-21 16:46:00,23.1,15.1,29.79,SSE,157,5.0,11.0,71,0.00,,,0.00,Wunderground v.1.15,2013-01-21 21:46:00,
2013-01-21 16:49:00,23.0,15.3,29.79,SSW,211,4.0,11.0,72,0.00,,,0.00,Wunderground v.1.15,2013-01-21 21:49:00,
2013-01-21 16:51:00,22.9,15.5,29.79,SSE,153,4.0,5.0,73,0.00,,,0.00,Wunderground v.1.15,2013-01-21 21:51:00,
2013-01-21 16:54:00,22.9,15.5,29.79,South,178,4.0,11.0,73,0.00,,,0.00,Wunderground v.1.15,2013-01-21 21:54:00,
2013-01-21 16:55:00,22.8,15.4,29.79,South,175,4.0,11.0,73,0.00,,,0.00,Wunderground v.1.15,2013-01-21 21:55:00,
2013-01-21 16:56:00,22.8,15.4,29.79,SSE,164,4.0,11.0,73,0.00,,,0.00,Wunderground v.1.15,2013-01-21 21:56:00,
2013-01-21 16:58:00,22.7,15.3,29.79,SSE,160,4.0,11.0,73,0.00,,,0.00,Wunderground v.1.15,2013-01-21 21:58:00,
2013-01-21 17:01:00,22.8,15.4,29.78,SSE,162,4.0,10.0,73,0.00,,,0.00,Wunderground v.1.15,2013-01-21 22:01:00,
2013-01-21 17:02:00,22.8,15.4,29.78,SSE,155,4.0,10.0,73,0.00,,,0.00,Wunderground v.1.15,2013-01-21 22:02:00,
2013-01-21 17:06:00,22.8,15.8,29.78,South,176,3.0,10.0,74,0.00,,,0.00,Wunderground v.1.15,2013-01-21 22:06:00,
2013-01-21 17:07:00,22.9,15.8,29.78,South,176,3.0,10.0,74,0.00,,,0.00,Wunderground v.1.15,2013-01-21 22:07:00,
2013-01-21 17:10:00,22.9,15.8,29.78,South,176,3.0,3.0,74,0.00,,,0.00,Wunderground v.1.15,2013-01-21 22:10:00,
2013-01-21 17:11:00,22.9,15.8,29.78,South,176,2.0,10.0,74,0.00,,,0.00,Wunderground v.1.15,2013-01-21 22:11:00,
2013-01-21 17:14:00,22.9,15.8,29.78,South,176,1.0,10.0,74,0.00,,,0.00,Wunderground v.1.15,2013-01-21 22:14:00,
2013-01-21 17:17:00,22.9,15.8,29.78,South,176,1.0,10.0,74,0.00,,,0.00,Wunderground v.1.15,2013-01-21 22:17:00,
2013-01-21 17:19:00,22.9,15.8,29.78,South,176,1.0,10.0,74,0.00,,,0.00,Wunderground v.1.15,2013-01-21 22:19:00,
2013-01-21 17:21:00,22.9,15.8,29.78,South,175,0.0,5.0,74,0.00,,,0.00,Wunderground v.1.15,2013-01-21 22:21:00,
2013-01-21 17:22:00,23.0,15.9,29.78,South,175,0.0,10.0,74,0.00,,,0.00,Wunderground v.1.15,2013-01-21 22:22:00,
2013-01-21 17:24:00,23.0,17.7,29.78,South,172,1.0,10.0,80,0.00,,,0.00,Wunderground v.1.15,2013-01-21 22:24:00,
2013-01-21 17:26:00,23.0,15.9,29.78,South,172,1.0,10.0,74,0.00,,,0.00,Wunderground v.1.15,2013-01-21 22:26:00,
2013-01-21 17:29:00,23.0,15.6,29.78,South,172,2.0,10.0,73,0.00,,,0.00,Wunderground v.1.15,2013-01-21 22:29:00,
2013-01-21 17:31:00,23.1,15.7,29.78,South,169,3.0,10.0,73,0.00,,,0.00,Wunderground v.1.15,2013-01-21 22:31:00,
2013-01-21 17:35:00,23.0,15.3,29.78,SSE,161,4.0,10.0,72,0.00,,,0.00,Wunderground v.1.15,2013-01-21 22:35:00,
2013-01-21 17:37:00,23.0,15.6,29.78,SSE,158,5.0,10.0,73,0.00,,,0.00,Wunderground v.1.15,2013-01-21 22:37:00,
2013-01-21 17:39:00,23.0,15.6,29.78,SSE,151,5.0,10.0,73,0.00,,,0.00,Wunderground v.1.15,2013-01-21 22:39:00,
2013-01-21 17:40:00,23.0,15.6,29.78,SSE,157,6.0,10.0,73,0.00,,,0.00,Wunderground v.1.15,2013-01-21 22:40:00,
2013-01-21 17:41:00,23.0,15.6,29.78,SSE,158,6.0,10.0,73,0.00,,,0.00,Wunderground v.1.15,2013-01-21 22:41:00,
2013-01-21 17:43:00,23.1,16.0,29.78,SSE,158,5.0,10.0,74,0.00,,,0.00,Wunderground v.1.15,2013-01-21 22:43:00,
2013-01-21 17:46:00,23.1,16.0,29.78,SSE,161,5.0,10.0,74,0.00,,,0.00,Wunderground v.1.15,2013-01-21 22:46:00,
2013-01-21 17:47:00,23.0,15.9,29.78,SSE,163,5.0,10.0,74,0.00,,,0.00,Wunderground v.1.15,2013-01-21 22:47:00,
2013-01-21 17:48:00,22.9,15.8,29.78,South,174,5.0,10.0,74,0.00,,,0.00,Wunderground v.1.15,2013-01-21 22:48:00,
2013-01-21 17:49:00,22.8,15.8,29.78,South,171,5.0,10.0,74,0.00,,,0.00,Wunderground v.1.15,2013-01-21 22:49:00,
2013-01-21 17:52:00,22.6,16.2,29.78,SSE,162,6.0,10.0,76,0.00,,,0.00,Wunderground v.1.15,2013-01-21 22:52:00,
2013-01-21 17:54:00,22.6,16.2,29.78,SSE,167,6.0,10.0,76,0.00,,,0.00,Wunderground v.1.15,2013-01-21 22:54:00,
2013-01-21 17:56:00,22.5,16.4,29.78,SSE,167,6.0,10.0,77,0.00,,,0.00,Wunderground v.1.15,2013-01-21 22:56:00,
2013-01-21 17:57:00,22.6,16.8,29.78,SSE,165,6.0,10.0,78,0.00,,,0.00,Wunderground v.1.15,2013-01-21 22:57:00,
2013-01-21 18:02:00,22.3,16.8,29.79,SSE,155,5.0,10.0,79,0.00,,,0.00,Wunderground v.1.15,2013-01-21 23:02:00,
2013-01-21 18:03:00,22.2,17.0,29.79,SSE,167,5.0,10.0,80,0.00,,,0.00,Wunderground v.1.15,2013-01-21 23:03:00,
2013-01-21 18:07:00,22.0,17.1,29.78,SSE,164,6.0,10.0,81,0.00,,,0.00,Wunderground v.1.15,2013-01-21 23:07:00,
2013-01-21 18:08:00,22.0,17.1,29.78,SSE,164,6.0,10.0,81,0.00,,,0.00,Wunderground v.1.15,2013-01-21 23:08:00,
2013-01-21 18:10:00,22.0,17.3,29.78,SSE,158,5.0,5.0,82,0.00,,,0.00,Wunderground v.1.15,2013-01-21 23:10:00,
2013-01-21 18:12:00,22.0,17.3,29.78,SSE,158,5.0,10.0,82,0.00,,,0.00,Wunderground v.1.15,2013-01-21 23:12:00,
2013-01-21 18:14:00,21.9,17.2,29.78,SSE,162,5.0,10.0,82,0.00,,,0.00,Wunderground v.1.15,2013-01-21 23:14:00,
2013-01-21 18:15:00,21.8,17.4,29.78,SSE,162,5.0,10.0,83,0.00,,,0.00,Wunderground v.1.15,2013-01-21 23:15:00,
2013-01-21 18:19:00,21.7,17.6,29.78,SSE,159,5.0,10.0,84,0.00,,,0.00,Wunderground v.1.15,2013-01-21 23:19:00,
2013-01-21 18:20:00,21.7,17.6,29.78,SSE,159,5.0,5.0,84,0.00,,,0.00,Wunderground v.1.15,2013-01-21 23:20:00,
2013-01-21 18:23:00,21.6,17.8,29.78,SSE,159,5.0,10.0,85,0.00,,,0.00,Wunderground v.1.15,2013-01-21 23:23:00,
2013-01-21 18:25:00,21.6,17.8,29.78,SSE,165,5.0,10.0,85,0.00,,,0.00,Wunderground v.1.15,2013-01-21 23:25:00,
2013-01-21 18:26:00,21.6,17.8,29.78,SSE,165,4.0,10.0,85,0.00,,,0.00,Wunderground v.1.15,2013-01-21 23:26:00,
2013-01-21 18:30:00,21.5,18.0,29.78,SSE,159,4.0,10.0,86,0.00,,,0.00,Wunderground v.1.15,2013-01-21 23:30:00,
2013-01-21 18:32:00,21.6,18.1,29.78,SSE,161,4.0,10.0,86,0.00,,,0.00,Wunderground v.1.15,2013-01-21 23:32:00,
2013-01-21 18:34:00,21.5,18.0,29.78,South,171,4.0,10.0,86,0.00,,,0.00,Wunderground v.1.15,2013-01-21 23:34:00,
2013-01-21 18:35:00,21.5,18.0,29.78,South,171,4.0,10.0,86,0.00,,,0.00,Wunderground v.1.15,2013-01-21 23:35:00,
2013-01-21 18:36:00,21.5,18.0,29.78,South,171,4.0,10.0,86,0.00,,,0.00,Wunderground v.1.15,2013-01-21 23:36:00,
2013-01-21 18:40:00,21.4,18.1,29.78,South,171,3.0,10.0,87,0.00,,,0.00,Wunderground v.1.15,2013-01-21 23:40:00,
2013-01-21 18:41:00,21.4,18.1,29.78,South,171,3.0,10.0,87,0.00,,,0.00,Wunderground v.1.15,2013-01-21 23:41:00,
2013-01-21 18:43:00,21.3,18.0,29.78,South,171,4.0,10.0,87,0.00,,,0.00,Wunderground v.1.15,2013-01-21 23:43:00,
2013-01-21 18:45:00,21.3,18.0,29.78,South,171,3.0,10.0,87,0.00,,,0.00,Wunderground v.1.15,2013-01-21 23:45:00,
2013-01-21 18:48:00,21.3,18.0,29.78,South,171,3.0,10.0,87,0.00,,,0.00,Wunderground v.1.15,2013-01-21 23:48:00,
2013-01-21 18:49:00,21.3,18.0,29.78,South,171,4.0,10.0,87,0.00,,,0.00,Wunderground v.1.15,2013-01-21 23:49:00,
2013-01-21 18:52:00,21.3,18.3,29.77,South,171,3.0,10.0,88,0.00,,,0.00,Wunderground v.1.15,2013-01-21 23:52:00,
2013-01-21 18:53:00,21.2,18.2,29.77,South,171,3.0,10.0,88,0.00,,,0.00,Wunderground v.1.15,2013-01-21 23:53:00,
2013-01-21 18:54:00,21.2,18.2,29.78,South,171,3.0,10.0,88,0.00,,,0.00,Wunderground v.1.15,2013-01-21 23:54:00,
2013-01-21 18:55:00,21.3,18.3,29.77,South,171,2.0,10.0,88,0.00,,,0.00,Wunderground v.1.15,2013-01-21 23:55:00,
2013-01-21 18:57:00,21.3,18.3,29.77,South,171,2.0,10.0,88,0.00,,,0.00,Wunderground v.1.15,2013-01-21 23:57:00,
2013-01-21 18:59:00,21.3,18.3,29.77,South,171,2.0,10.0,88,0.00,,,0.00,Wunderground v.1.15,2013-01-21 23:59:00,
2013-01-21 19:01:00,21.3,18.3,29.77,South,171,2.0,6.0,88,0.00,,,0.00,Wunderground v.1.15,2013-01-22 00:01:00,
2013-01-21 19:03:00,21.4,18.4,29.77,South,171,1.0,6.0,88,0.00,,,0.00,Wunderground v.1.15,2013-01-22 00:03:00,
2013-01-21 19:04:00,21.4,18.4,29.77,South,171,1.0,6.0,88,0.00,,,0.00,Wunderground v.1.15,2013-01-22 00:04:00,
2013-01-21 19:05:00,21.4,18.4,29.77,South,171,1.0,6.0,88,0.00,,,0.00,Wunderground v.1.15,2013-01-22 00:05:00,
2013-01-21 19:07:00,21.4,18.4,29.77,South,171,1.0,6.0,88,0.00,,,0.00,Wunderground v.1.15,2013-01-22 00:07:00,
2013-01-21 19:09:00,21.3,18.3,29.77,South,171,1.0,6.0,88,0.00,,,0.00,Wunderground v.1.15,2013-01-22 00:09:00,
2013-01-21 19:10:00,21.3,18.3,29.77,South,171,1.0,1.0,88,0.00,,,0.00,Wunderground v.1.15,2013-01-22 00:10:00,
2013-01-21 19:15:00,21.4,18.4,29.77,South,171,0.0,6.0,88,0.00,,,0.00,Wunderground v.1.15,2013-01-22 00:15:00,
2013-01-21 19:16:00,21.4,18.4,29.77,South,171,0.0,6.0,88,0.00,,,0.00,Wunderground v.1.15,2013-01-22 00:16:00,
2013-01-21 19:17:00,21.3,18.3,29.77,South,171,0.0,6.0,88,0.00,,,0.00,Wunderground v.1.15,2013-01-22 00:17:00,
2013-01-21 19:21:00,21.3,18.3,29.77,South,171,0.0,6.0,88,0.00,,,0.00,Wunderground v.1.15,2013-01-22 00:21:00,
2013-01-21 19:22:00,21.3,18.3,29.77,South,171,0.0,6.0,88,0.00,,,0.00,Wunderground v.1.15,2013-01-22 00:22:00,
2013-01-21 19:23:00,21.3,18.3,29.77,South,171,0.0,6.0,88,0.00,,,0.00,Wunderground v.1.15,2013-01-22 00:23:00,
2013-01-21 19:24:00,21.4,18.4,29.77,South,171,0.0,6.0,88,0.00,,,0.00,Wunderground v.1.15,2013-01-22 00:24:00,
2013-01-21 19:28:00,21.4,18.4,29.77,South,171,0.0,6.0,88,0.00,,,0.00,Wunderground v.1.15,2013-01-22 00:28:00,
2013-01-21 19:29:00,21.4,18.4,29.77,South,171,0.0,6.0,88,0.00,,,0.00,Wunderground v.1.15,2013-01-22 00:29:00,
2013-01-21 19:30:00,21.4,18.4,29.77,South,171,0.0,6.0,88,0.00,,,0.00,Wunderground v.1.15,2013-01-22 00:30:00,
2013-01-21 19:32:00,21.5,18.5,29.77,South,171,0.0,6.0,88,0.00,,,0.00,Wunderground v.1.15,2013-01-22 00:32:00,
2013-01-21 19:33:00,21.5,18.5,29.77,South,171,0.0,6.0,88,0.00,,,0.00,Wunderground v.1.15,2013-01-22 00:33:00,
2013-01-21 19:35:00,21.4,18.4,29.77,South,171,0.0,6.0,88,0.00,,,0.00,Wunderground v.1.15,2013-01-22 00:35:00,
2013-01-21 19:38:00,21.3,18.3,29.77,South,171,0.0,6.0,88,0.00,,,0.00,Wunderground v.1.15,2013-01-22 00:38:00,
2013-01-21 19:39:00,21.3,18.3,29.77,South,171,0.0,6.0,88,0.00,,,0.00,Wunderground v.1.15,2013-01-22 00:39:00,
2013-01-21 19:42:00,21.3,18.3,29.77,South,171,0.0,6.0,88,0.00,,,0.00,Wunderground v.1.15,2013-01-22 00:42:00,
2013-01-21 19:43:00,21.3,18.3,29.77,South,171,0.0,6.0,88,0.00,,,0.00,Wunderground v.1.15,2013-01-22 00:43:00,
2013-01-21 19:46:00,21.3,18.3,29.77,South,171,0.0,6.0,88,0.00,,,0.00,Wunderground v.1.15,2013-01-22 00:46:00,
2013-01-21 19:50:00,21.2,18.2,29.77,South,171,0.0,6.0,88,0.00,,,0.00,Wunderground v.1.15,2013-01-22 00:50:00,
2013-01-21 19:52:00,21.2,18.2,29.77,South,171,0.0,6.0,88,0.00,,,0.00,Wunderground v.1.15,2013-01-22 00:52:00,
2013-01-21 19:53:00,21.1,18.1,29.77,South,171,0.0,6.0,88,0.00,,,0.00,Wunderground v.1.15,2013-01-22 00:53:00,
2013-01-21 19:54:00,21.1,18.1,29.77,South,171,0.0,6.0,88,0.00,,,0.00,Wunderground v.1.15,2013-01-22 00:54:00,
2013-01-21 19:56:00,21.1,18.1,29.77,South,171,0.0,6.0,88,0.00,,,0.00,Wunderground v.1.15,2013-01-22 00:56:00,
2013-01-21 19:59:00,21.1,18.1,29.77,South,171,0.0,6.0,88,0.00,,,0.00,Wunderground v.1.15,2013-01-22 00:59:00,
2013-01-21 20:03:00,21.0,18.0,29.77,South,171,0.0,2.0,88,0.00,,,0.00,Wunderground v.1.15,2013-01-22 01:03:00,
2013-01-21 20:05:00,21.0,18.3,29.77,South,171,0.0,2.0,89,0.00,,,0.00,Wunderground v.1.15,2013-01-22 01:05:00,
2013-01-21 20:06:00,21.0,18.3,29.77,South,171,0.0,2.0,89,0.00,,,0.00,Wunderground v.1.15,2013-01-22 01:06:00,
2013-01-21 20:09:00,20.9,18.2,29.77,South,171,0.0,2.0,89,0.00,,,0.00,Wunderground v.1.15,2013-01-22 01:09:00,
2013-01-21 20:12:00,20.9,18.2,29.76,South,171,0.0,2.0,89,0.00,,,0.00,Wunderground v.1.15,2013-01-22 01:12:00,
2013-01-21 20:14:00,20.9,18.2,29.76,South,171,0.0,2.0,89,0.00,,,0.00,Wunderground v.1.15,2013-01-22 01:14:00,
2013-01-21 20:15:00,20.9,18.2,29.76,South,171,0.0,2.0,89,0.00,,,0.00,Wunderground v.1.15,2013-01-22 01:15:00,
2013-01-21 20:17:00,20.9,18.2,29.76,South,171,0.0,2.0,89,0.00,,,0.00,Wunderground v.1.15,2013-01-22 01:17:00,
2013-01-21 20:18:00,20.9,18.2,29.76,South,171,0.0,2.0,89,0.00,,,0.00,Wunderground v.1.15,2013-01-22 01:18:00,
2013-01-21 20:20:00,20.9,18.2,29.76,South,171,0.0,2.0,89,0.00,,,0.00,Wunderground v.1.15,2013-01-22 01:20:00,
2013-01-21 20:23:00,21.0,18.3,29.76,South,171,0.0,2.0,89,0.00,,,0.00,Wunderground v.1.15,2013-01-22 01:23:00,
2013-01-21 20:24:00,20.9,18.2,29.76,South,171,0.0,2.0,89,0.00,,,0.00,Wunderground v.1.15,2013-01-22 01:24:00,
2013-01-21 20:27:00,20.9,18.2,29.76,South,171,0.0,2.0,89,0.00,,,0.00,Wunderground v.1.15,2013-01-22 01:27:00,
2013-01-21 20:29:00,20.8,18.1,29.76,South,171,0.0,2.0,89,0.00,,,0.00,Wunderground v.1.15,2013-01-22 01:29:00,
2013-01-21 20:30:00,20.8,18.1,29.76,South,171,0.0,2.0,89,0.00,,,0.00,Wunderground v.1.15,2013-01-22 01:30:00,
2013-01-21 20:33:00,20.9,18.4,29.76,South,171,0.0,2.0,90,0.00,,,0.00,Wunderground v.1.15,2013-01-22 01:33:00,
2013-01-21 20:35:00,20.9,18.4,29.76,South,171,0.0,2.0,90,0.00,,,0.00,Wunderground v.1.15,2013-01-22 01:35:00,
2013-01-21 20:36:00,20.8,18.3,29.76,South,171,0.0,2.0,90,0.00,,,0.00,Wunderground v.1.15,2013-01-22 01:36:00,
2013-01-21 20:40:00,20.8,18.3,29.75,South,171,0.0,2.0,90,0.00,,,0.00,Wunderground v.1.15,2013-01-22 01:40:00,
2013-01-21 20:41:00,20.8,18.3,29.75,South,171,0.0,2.0,90,0.00,,,0.00,Wunderground v.1.15,2013-01-22 01:41:00,
2013-01-21 20:43:00,20.7,18.2,29.75,South,171,0.0,2.0,90,0.00,,,0.00,Wunderground v.1.15,2013-01-22 01:43:00,
2013-01-21 20:45:00,20.7,18.2,29.75,South,171,0.0,2.0,90,0.00,,,0.00,Wunderground v.1.15,2013-01-22 01:45:00,
2013-01-21 20:46:00,20.7,18.2,29.75,South,171,0.0,2.0,90,0.00,,,0.00,Wunderground v.1.15,2013-01-22 01:46:00,
2013-01-21 20:49:00,20.6,18.1,29.75,South,171,0.0,2.0,90,0.00,,,0.00,Wunderground v.1.15,2013-01-22 01:49:00,
2013-01-21 20:51:00,20.6,18.1,29.75,South,171,0.0,2.0,90,0.00,,,0.00,Wunderground v.1.15,2013-01-22 01:51:00,
2013-01-21 20:52:00,20.6,18.1,29.75,South,171,0.0,2.0,90,0.00,,,0.00,Wunderground v.1.15,2013-01-22 01:52:00,
2013-01-21 20:54:00,20.6,18.1,29.75,South,171,0.0,2.0,90,0.00,,,0.00,Wunderground v.1.15,2013-01-22 01:54:00,
2013-01-21 20:55:00,20.6,18.1,29.75,South,171,0.0,2.0,90,0.00,,,0.00,Wunderground v.1.15,2013-01-22 01:55:00,
2013-01-21 20:57:00,20.7,18.2,29.75,South,171,0.0,2.0,90,0.00,,,0.00,Wunderground v.1.15,2013-01-22 01:57:00,
2013-01-21 21:02:00,20.7,18.2,29.74,South,171,0.0,0.0,90,0.00,,,0.00,Wunderground v.1.15,2013-01-22 02:02:00,
2013-01-21 21:03:00,20.7,18.2,29.74,South,171,0.0,0.0,90,0.00,,,0.00,Wunderground v.1.15,2013-01-22 02:03:00,
2013-01-21 21:05:00,20.6,18.1,29.74,South,171,0.0,0.0,90,0.00,,,0.00,Wunderground v.1.15,2013-01-22 02:05:00,
2013-01-21 21:08:00,20.6,18.1,29.74,South,171,0.0,0.0,90,0.00,,,0.00,Wunderground v.1.15,2013-01-22 02:08:00,
2013-01-21 21:09:00,20.6,18.1,29.74,South,171,0.0,0.0,90,0.00,,,0.00,Wunderground v.1.15,2013-01-22 02:09:00,
2013-01-21 21:12:00,20.6,18.4,29.74,South,171,0.0,0.0,91,0.00,,,0.00,Wunderground v.1.15,2013-01-22 02:12:00,
2013-01-21 21:13:00,20.6,18.4,29.74,South,171,0.0,0.0,91,0.00,,,0.00,Wunderground v.1.15,2013-01-22 02:13:00,
2013-01-21 21:15:00,20.6,18.4,29.74,South,171,0.0,0.0,91,0.00,,,0.00,Wunderground v.1.15,2013-01-22 02:15:00,
2013-01-21 21:16:00,20.6,18.4,29.74,South,171,0.0,0.0,91,0.00,,,0.00,Wunderground v.1.15,2013-01-22 02:16:00,
2013-01-21 21:18:00,20.6,18.4,29.74,South,171,0.0,0.0,91,0.00,,,0.00,Wunderground v.1.15,2013-01-22 02:18:00,
2013-01-21 21:21:00,20.7,18.5,29.74,South,171,0.0,0.0,91,0.00,,,0.00,Wunderground v.1.15,2013-01-22 02:21:00,
2013-01-21 21:22:00,20.7,18.5,29.74,South,171,0.0,0.0,91,0.00,,,0.00,Wunderground v.1.15,2013-01-22 02:22:00,
2013-01-21 21:24:00,20.7,18.5,29.74,South,171,0.0,0.0,91,0.00,,,0.00,Wunderground v.1.15,2013-01-22 02:24:00,
2013-01-21 21:25:00,20.7,18.5,29.74,South,171,0.0,0.0,91,0.00,,,0.00,Wunderground v.1.15,2013-01-22 02:25:00,
2013-01-21 21:26:00,20.7,18.5,29.73,South,171,0.0,0.0,91,0.00,,,0.00,Wunderground v.1.15,2013-01-22 02:26:00,
2013-01-21 21:27:00,20.7,18.5,29.73,South,171,0.0,0.0,91,0.00,,,0.00,Wunderground v.1.15,2013-01-22 02:27:00,
2013-01-21 21:31:00,20.8,18.6,29.73,South,171,0.0,0.0,91,0.00,,,0.00,Wunderground v.1.15,2013-01-22 02:31:00,
2013-01-21 21:32:00,20.8,18.6,29.73,South,171,0.0,0.0,91,0.00,,,0.00,Wunderground v.1.15,2013-01-22 02:32:00,
2013-01-21 21:33:00,20.8,18.6,29.73,South,171,0.0,0.0,91,0.00,,,0.00,Wunderground v.1.15,2013-01-22 02:33:00,
2013-01-21 21:35:00,20.8,18.6,29.73,South,171,0.0,0.0,91,0.00,,,0.00,Wunderground v.1.15,2013-01-22 02:35:00,
2013-01-21 21:38:00,20.9,18.7,29.73,South,171,0.0,0.0,91,0.00,,,0.00,Wunderground v.1.15,2013-01-22 02:38:00,
2013-01-21 21:39:00,20.9,18.7,29.72,South,171,0.0,0.0,91,0.00,,,0.00,Wunderground v.1.15,2013-01-22 02:39:00,
2013-01-21 21:40:00,20.9,18.7,29.72,South,171,0.0,0.0,91,0.00,,,0.00,Wunderground v.1.15,2013-01-22 02:40:00,
2013-01-21 21:43:00,20.9,18.4,29.72,South,171,0.0,0.0,90,0.00,,,0.00,Wunderground v.1.15,2013-01-22 02:43:00,
2013-01-21 21:45:00,20.9,18.7,29.72,South,171,0.0,0.0,91,0.00,,,0.00,Wunderground v.1.15,2013-01-22 02:45:00,
2013-01-21 21:46:00,20.9,18.7,29.72,South,171,0.0,0.0,91,0.00,,,0.00,Wunderground v.1.15,2013-01-22 02:46:00,
2013-01-21 21:48:00,20.9,18.7,29.72,South,171,0.0,0.0,91,0.00,,,0.00,Wunderground v.1.15,2013-01-22 02:48:00,
2013-01-21 21:50:00,21.0,18.8,29.72,South,171,0.0,0.0,91,0.00,,,0.00,Wunderground v.1.15,2013-01-22 02:50:00,
2013-01-21 21:51:00,21.0,18.5,29.72,South,171,0.0,0.0,90,0.00,,,0.00,Wunderground v.1.15,2013-01-22 02:51:00,
2013-01-21 21:53:00,21.0,18.5,29.72,South,171,0.0,0.0,90,0.00,,,0.00,Wunderground v.1.15,2013-01-22 02:53:00,
2013-01-21 21:58:00,21.1,18.6,29.72,South,171,0.0,0.0,90,0.00,,,0.00,Wunderground v.1.15,2013-01-22 02:58:00,
2013-01-21 21:59:00,21.1,18.6,29.72,South,171,0.0,0.0,90,0.00,,,0.00,Wunderground v.1.15,2013-01-22 02:59:00,
2013-01-21 22:00:00,21.1,18.6,29.72,South,171,0.0,0.0,90,0.00,,,0.00,Wunderground v.1.15,2013-01-22 03:00:00,
2013-01-21 22:05:00,21.1,18.6,29.72,South,171,0.0,0.0,90,0.00,,,0.00,Wunderground v.1.15,2013-01-22 03:05:00,
2013-01-21 22:06:00,21.1,18.6,29.71,South,171,0.0,0.0,90,0.00,,,0.00,Wunderground v.1.15,2013-01-22 03:06:00,
2013-01-21 22:07:00,21.1,18.9,29.71,South,171,0.0,0.0,91,0.00,,,0.00,Wunderground v.1.15,2013-01-22 03:07:00,
2013-01-21 22:08:00,21.1,18.6,29.71,South,171,0.0,0.0,90,0.00,,,0.00,Wunderground v.1.15,2013-01-22 03:08:00,
2013-01-21 22:13:00,21.1,18.6,29.71,South,171,0.0,0.0,90,0.00,,,0.00,Wunderground v.1.15,2013-01-22 03:13:00,
2013-01-21 22:14:00,21.1,18.6,29.71,South,171,0.0,0.0,90,0.00,,,0.00,Wunderground v.1.15,2013-01-22 03:14:00,
2013-01-21 22:16:00,21.1,18.6,29.70,South,171,0.0,0.0,90,0.00,,,0.00,Wunderground v.1.15,2013-01-22 03:16:00,
2013-01-21 22:18:00,21.1,18.6,29.70,South,171,0.0,0.0,90,0.00,,,0.00,Wunderground v.1.15,2013-01-22 03:18:00,
2013-01-21 22:21:00,21.1,18.9,29.70,South,171,0.0,2.0,91,0.00,,,0.00,Wunderground v.1.15,2013-01-22 03:21:00,
2013-01-21 22:22:00,21.1,18.9,29.70,South,171,0.0,2.0,91,0.00,,,0.00,Wunderground v.1.15,2013-01-22 03:22:00,
2013-01-21 22:23:00,21.1,18.9,29.70,South,171,0.0,2.0,91,0.00,,,0.00,Wunderground v.1.15,2013-01-22 03:23:00,
2013-01-21 22:26:00,21.2,19.0,29.70,South,171,0.0,2.0,91,0.00,,,0.00,Wunderground v.1.15,2013-01-22 03:26:00,
2013-01-21 22:28:00,21.2,19.0,29.70,South,171,0.0,2.0,91,0.00,,,0.00,Wunderground v.1.15,2013-01-22 03:28:00,
2013-01-21 22:29:00,21.2,19.0,29.69,South,171,0.0,2.0,91,0.00,,,0.00,Wunderground v.1.15,2013-01-22 03:29:00,
2013-01-21 22:31:00,21.1,18.9,29.69,South,171,0.0,0.0,91,0.00,,,0.00,Wunderground v.1.15,2013-01-22 03:31:00,
2013-01-21 22:33:00,21.1,18.9,29.69,South,171,0.0,0.0,91,0.00,,,0.00,Wunderground v.1.15,2013-01-22 03:33:00,
2013-01-21 22:36:00,21.1,18.9,29.69,South,171,0.0,0.0,91,0.00,,,0.00,Wunderground v.1.15,2013-01-22 03:36:00,
2013-01-21 22:38:00,21.1,18.9,29.69,South,171,0.0,0.0,91,0.00,,,0.00,Wunderground v.1.15,2013-01-22 03:38:00,
2013-01-21 22:39:00,21.1,18.9,29.69,South,171,0.0,0.0,91,0.00,,,0.00,Wunderground v.1.15,2013-01-22 03:39:00,
2013-01-21 22:43:00,21.1,18.9,29.69,South,171,0.0,1.0,91,0.00,,,0.00,Wunderground v.1.15,2013-01-22 03:43:00,
2013-01-21 22:44:00,21.1,18.9,29.69,South,171,0.0,4.0,91,0.00,,,0.00,Wunderground v.1.15,2013-01-22 03:44:00,
2013-01-21 22:45:00,21.1,18.9,29.69,South,171,0.0,4.0,91,0.00,,,0.00,Wunderground v.1.15,2013-01-22 03:45:00,
2013-01-21 22:48:00,21.0,18.8,29.69,South,171,1.0,4.0,91,0.00,,,0.00,Wunderground v.1.15,2013-01-22 03:48:00,
2013-01-21 22:49:00,21.0,18.8,29.69,South,171,1.0,4.0,91,0.00,,,0.00,Wunderground v.1.15,2013-01-22 03:49:00,
2013-01-21 22:50:00,21.0,18.8,29.69,South,171,1.0,1.0,91,0.00,,,0.00,Wunderground v.1.15,2013-01-22 03:50:00,
2013-01-21 22:51:00,20.9,18.7,29.69,South,171,1.0,1.0,91,0.00,,,0.00,Wunderground v.1.15,2013-01-22 03:51:00,
2013-01-21 22:53:00,21.0,18.8,29.69,South,171,1.0,2.0,91,0.00,,,0.00,Wunderground v.1.15,2013-01-22 03:53:00,
2013-01-21 22:54:00,20.9,18.7,29.69,South,171,1.0,4.0,91,0.00,,,0.00,Wunderground v.1.15,2013-01-22 03:54:00,
2013-01-21 22:56:00,21.0,18.8,29.69,South,171,2.0,5.0,91,0.00,,,0.00,Wunderground v.1.15,2013-01-22 03:56:00,
2013-01-21 22:57:00,21.0,18.5,29.69,South,171,2.0,5.0,90,0.00,,,0.00,Wunderground v.1.15,2013-01-22 03:57:00,
2013-01-21 22:58:00,21.0,18.5,29.69,South,171,2.0,5.0,90,0.00,,,0.00,Wunderground v.1.15,2013-01-22 03:58:00,
2013-01-21 23:00:00,21.0,18.5,29.69,South,171,3.0,4.0,90,0.00,,,0.00,Wunderground v.1.15,2013-01-22 04:00:00,
2013-01-21 23:03:00,21.0,18.5,29.69,South,171,3.0,4.0,90,0.00,,,0.00,Wunderground v.1.15,2013-01-22 04:03:00,
2013-01-21 23:04:00,21.1,18.6,29.69,South,171,3.0,4.0,90,0.00,,,0.00,Wunderground v.1.15,2013-01-22 04:04:00,
2013-01-21 23:06:00,21.1,18.6,29.69,South,171,3.0,4.0,90,0.00,,,0.00,Wunderground v.1.15,2013-01-22 04:06:00,
2013-01-21 23:08:00,21.1,18.6,29.69,South,171,2.0,4.0,90,0.00,,,0.00,Wunderground v.1.15,2013-01-22 04:08:00,
2013-01-21 23:09:00,21.1,18.6,29.69,South,171,2.0,4.0,90,0.00,,,0.00,Wunderground v.1.15,2013-01-22 04:09:00,
2013-01-21 23:14:00,21.1,18.6,29.69,South,171,1.0,4.0,90,0.00,,,0.00,Wunderground v.1.15,2013-01-22 04:14:00,
2013-01-21 23:15:00,21.1,18.6,29.69,South,171,1.0,4.0,90,0.00,,,0.00,Wunderground v.1.15,2013-01-22 04:15:00,
2013-01-21 23:17:00,21.2,18.7,29.68,South,171,0.0,4.0,90,0.00,,,0.00,Wunderground v.1.15,2013-01-22 04:17:00,
2013-01-21 23:20:00,21.2,18.5,29.68,South,171,0.0,4.0,89,0.00,,,0.00,Wunderground v.1.15,2013-01-22 04:20:00,
2013-01-21 23:21:00,21.2,18.5,29.68,South,171,0.0,4.0,89,0.00,,,0.00,Wunderground v.1.15,2013-01-22 04:21:00,
2013-01-21 23:22:00,21.2,18.5,29.68,South,171,0.0,4.0,89,0.00,,,0.00,Wunderground v.1.15,2013-01-22 04:22:00,
2013-01-21 23:23:00,21.2,18.5,29.67,South,171,0.0,4.0,89,0.00,,,0.00,Wunderground v.1.15,2013-01-22 04:23:00,
2013-01-21 23:27:00,21.1,18.4,29.67,South,171,0.0,4.0,89,0.00,,,0.00,Wunderground v.1.15,2013-01-22 04:27:00,
2013-01-21 23:28:00,21.1,18.4,29.67,South,171,0.0,4.0,89,0.00,,,0.00,Wunderground v.1.15,2013-01-22 04:28:00,
2013-01-21 23:29:00,21.1,18.4,29.67,South,171,0.0,4.0,89,0.00,,,0.00,Wunderground v.1.15,2013-01-22 04:29:00,
2013-01-21 23:30:00,21.1,18.4,29.67,South,171,0.0,4.0,89,0.00,,,0.00,Wunderground v.1.15,2013-01-22 04:30:00,
2013-01-21 23:34:00,21.1,18.4,29.67,South,171,0.0,4.0,89,0.00,,,0.00,Wunderground v.1.15,2013-01-22 04:34:00,
2013-01-21 23:35:00,21.1,18.4,29.67,South,171,0.0,4.0,89,0.00,,,0.00,Wunderground v.1.15,2013-01-22 04:35:00,
2013-01-21 23:36:00,21.1,18.4,29.67,South,171,0.0,4.0,89,0.00,,,0.00,Wunderground v.1.15,2013-01-22 04:36:00,
2013-01-21 23:41:00,21.1,18.4,29.66,South,171,0.0,4.0,89,0.00,,,0.00,Wunderground v.1.15,2013-01-22 04:41:00,
2013-01-21 23:42:00,21.0,18.3,29.66,South,171,0.0,4.0,89,0.00,,,0.00,Wunderground v.1.15,2013-01-22 04:42:00,
2013-01-21 23:43:00,21.0,18.3,29.66,South,171,0.0,4.0,89,0.00,,,0.00,Wunderground v.1.15,2013-01-22 04:43:00,
2013-01-21 23:46:00,21.0,18.3,29.66,South,171,0.0,4.0,89,0.00,,,0.00,Wunderground v.1.15,2013-01-22 04:46:00,
2013-01-21 23:47:00,21.0,18.3,29.66,South,171,0.0,4.0,89,0.00,,,0.00,Wunderground v.1.15,2013-01-22 04:47:00,
2013-01-21 23:48:00,21.0,18.3,29.66,South,171,0.0,4.0,89,0.00,,,0.00,Wunderground v.1.15,2013-01-22 04:48:00,
2013-01-21 23:51:00,21.0,18.0,29.67,South,171,0.0,4.0,88,0.00,,,0.00,Wunderground v.1.15,2013-01-22 04:51:00,
2013-01-21 23:53:00,21.0,18.3,29.67,South,171,0.0,4.0,89,0.00,,,0.00,Wunderground v.1.15,2013-01-22 04:53:00,
2013-01-21 23:54:00,21.0,18.0,29.66,South,171,0.0,4.0,88,0.00,,,0.00,Wunderground v.1.15,2013-01-22 04:54:00,
2013-01-21 23:59:00,21.1,18.1,29.66,South,171,0.0,4.0,88,0.00,,,0.00,Wunderground v.1.15,2013-01-22 04:59:00,